Wetterdaten: Sonntag, 11.05.2014
Datum Zeit Temp. Aussen +5cm Feuchte Auss Luftdruck Regen Sonnenschein Regendauer UV Solar Windben
11.05.2014 00:00 10,8 C 8,9 C 80 % 1003,3 hPa 0,0 l/m 0 min 0 min 0,0 UV-I 0 W/m 10,3 km/h (2 Bft)
11.05.2014 00:02 10,8 C 8,9 C 80 % 1003,4 hPa 0,0 l/m 0 min 0 min 0,0 UV-I 0 W/m 25,7 km/h (4 Bft)
11.05.2014 00:05 10,8 C 8,9 C 80 % 1003,3 hPa 0,0 l/m 0 min 0 min 0,0 UV-I 0 W/m 20,6 km/h (4 Bft)
11.05.2014 00:06 10,8 C 8,9 C 80 % 1003,3 hPa 0,0 l/m 0 min 0 min 0,0 UV-I 0 W/m 5,1 km/h (1 Bft)
11.05.2014 00:08 10,8 C 8,9 C 80 % 1003,3 hPa 0,0 l/m 0 min 0 min 0,0 UV-I 0 W/m 25,7 km/h (4 Bft)
11.05.2014 00:10 10,8 C 8,9 C 80 % 1003,3 hPa 0,0 l/m 0 min 0 min 0,0 UV-I 0 W/m 36,0 km/h (5 Bft)
11.05.2014 00:12 10,8 C 8,9 C 80 % 1003,3 hPa 0,0 l/m 0 min 0 min 0,0 UV-I 0 W/m 20,6 km/h (4 Bft)
11.05.2014 00:14 10,7 C 8,9 C 81 % 1003,3 hPa 0,0 l/m 0 min 0 min 0,0 UV-I 0 W/m 12,9 km/h (3 Bft)
11.05.2014 00:16 10,7 C 8,9 C 81 % 1003,3 hPa 0,0 l/m 0 min 0 min 0,0 UV-I 0 W/m 10,3 km/h (2 Bft)
11.05.2014 00:18 10,7 C 8,9 C 81 % 1003,3 hPa 0,0 l/m 0 min 0 min 0,0 UV-I 0 W/m 12,9 km/h (3 Bft)
11.05.2014 00:20 10,7 C 8,9 C 81 % 1003,3 hPa 0,0 l/m 0 min 0 min 0,0 UV-I 0 W/m 7,7 km/h (2 Bft)
11.05.2014 00:22 10,6 C 8,9 C 81 % 1003,3 hPa 0,0 l/m 0 min 0 min 0,0 UV-I 0 W/m 5,1 km/h (1 Bft)
11.05.2014 00:24 10,6 C 8,9 C 81 % 1003,3 hPa 0,0 l/m 0 min 0 min 0,0 UV-I 0 W/m 18,0 km/h (3 Bft)
11.05.2014 00:26 10,5 C 8,9 C 81 % 1003,3 hPa 0,0 l/m 0 min 0 min 0,0 UV-I 0 W/m 12,9 km/h (3 Bft)
11.05.2014 00:28 10,5 C 8,9 C 82 % 1003,3 hPa 0,0 l/m 0 min 0 min 0,0 UV-I 0 W/m 23,2 km/h (4 Bft)
11.05.2014 00:30 10,5 C 8,9 C 82 % 1003,4 hPa 0,0 l/m 0 min 0 min 0,0 UV-I 0 W/m 12,9 km/h (3 Bft)
11.05.2014 00:32 10,5 C 8,9 C 81 % 1003,4 hPa 0,0 l/m 0 min 0 min 0,0 UV-I 0 W/m 12,9 km/h (3 Bft)
11.05.2014 00:34 10,5 C 8,9 C 81 % 1003,4 hPa 0,0 l/m 0 min 0 min 0,0 UV-I 0 W/m 18,0 km/h (3 Bft)
11.05.2014 00:36 10,5 C 8,9 C 81 % 1003,5 hPa 0,0 l/m 0 min 0 min 0,0 UV-I 0 W/m 20,6 km/h (4 Bft)
11.05.2014 00:38 10,5 C 8,9 C 82 % 1003,4 hPa 0,0 l/m 0 min 0 min 0,0 UV-I 0 W/m 18,0 km/h (3 Bft)
11.05.2014 00:40 10,5 C 8,9 C 82 % 1003,4 hPa 0,0 l/m 0 min 0 min 0,0 UV-I 0 W/m 10,3 km/h (2 Bft)
11.05.2014 00:42 10,5 C 8,9 C 82 % 1003,4 hPa 0,0 l/m 0 min 0 min 0,0 UV-I 0 W/m 15,4 km/h (3 Bft)
11.05.2014 00:44 10,5 C 8,9 C 82 % 1003,4 hPa 0,0 l/m 0 min 0 min 0,0 UV-I 0 W/m 18,0 km/h (3 Bft)
11.05.2014 00:46 10,4 C 8,9 C 82 % 1003,5 hPa 0,0 l/m 0 min 0 min 0,0 UV-I 0 W/m 12,9 km/h (3 Bft)
11.05.2014 00:48 10,4 C 8,9 C 82 % 1003,4 hPa 0,0 l/m 0 min 0 min 0,0 UV-I 0 W/m 18,0 km/h (3 Bft)
11.05.2014 00:50 10,4 C 8,9 C 82 % 1003,4 hPa 0,0 l/m 0 min 0 min 0,0 UV-I 0 W/m 7,7 km/h (2 Bft)
11.05.2014 00:52 10,4 C 8,9 C 83 % 1003,4 hPa 0,0 l/m 0 min 0 min 0,0 UV-I 0 W/m 15,4 km/h (3 Bft)
11.05.2014 00:54 10,5 C 8,9 C 83 % 1003,4 hPa 0,0 l/m 0 min 0 min 0,0 UV-I 0 W/m 12,9 km/h (3 Bft)
11.05.2014 00:56 10,5 C 8,9 C 83 % 1003,4 hPa 0,0 l/m 0 min 0 min 0,0 UV-I 0 W/m 20,6 km/h (4 Bft)
11.05.2014 00:58 10,6 C 8,9 C 82 % 1003,5 hPa 0,0 l/m 0 min 0 min 0,0 UV-I 0 W/m 28,3 km/h (4 Bft)
11.05.2014 01:00 10,6 C 8,9 C 82 % 1003,4 hPa 0,0 l/m 0 min 0 min 0,0 UV-I 0 W/m 20,6 km/h (4 Bft)
11.05.2014 01:02 10,7 C 9,4 C 82 % 1003,4 hPa 0,0 l/m 0 min 0 min 0,0 UV-I 0 W/m 20,6 km/h (4 Bft)
11.05.2014 01:06 10,7 C 9,4 C 82 % 1003,3 hPa 0,0 l/m 0 min 0 min 0,0 UV-I 0 W/m 23,2 km/h (4 Bft)
11.05.2014 01:08 10,7 C 9,4 C 81 % 1003,4 hPa 0,0 l/m 0 min 0 min 0,0 UV-I 0 W/m 28,3 km/h (4 Bft)
11.05.2014 01:10 10,8 C 9,4 C 81 % 1003,3 hPa 0,0 l/m 0 min 0 min 0,0 UV-I 0 W/m 25,7 km/h (4 Bft)
11.05.2014 01:12 10,8 C 9,4 C 81 % 1003,3 hPa 0,0 l/m 0 min 0 min 0,0 UV-I 0 W/m 25,7 km/h (4 Bft)
11.05.2014 01:14 10,8 C 9,4 C 81 % 1003,3 hPa 0,0 l/m 0 min 0 min 0,0 UV-I 0 W/m 12,9 km/h (3 Bft)
11.05.2014 01:16 10,8 C 9,4 C 81 % 1003,2 hPa 0,0 l/m 0 min 0 min 0,0 UV-I 0 W/m 25,7 km/h (4 Bft)
11.05.2014 01:18 10,8 C 9,4 C 81 % 1003,3 hPa 0,0 l/m 0 min 0 min 0,0 UV-I 0 W/m 20,6 km/h (4 Bft)
11.05.2014 01:20 10,8 C 9,4 C 81 % 1003,3 hPa 0,0 l/m 0 min 0 min 0,0 UV-I 0 W/m 15,4 km/h (3 Bft)
11.05.2014 01:22 10,8 C 9,4 C 81 % 1003,5 hPa 0,0 l/m 0 min 0 min 0,0 UV-I 0 W/m 23,2 km/h (4 Bft)
11.05.2014 01:24 10,8 C 9,4 C 81 % 1003,3 hPa 0,0 l/m 0 min 0 min 0,0 UV-I 0 W/m 25,7 km/h (4 Bft)
11.05.2014 01:26 10,8 C 9,4 C 81 % 1003,3 hPa 0,0 l/m 0 min 0 min 0,0 UV-I 0 W/m 18,0 km/h (3 Bft)
11.05.2014 01:28 10,8 C 9,4 C 80 % 1003,3 hPa 0,0 l/m 0 min 0 min 0,0 UV-I 0 W/m 23,2 km/h (4 Bft)
11.05.2014 01:30 10,8 C 9,4 C 81 % 1003,3 hPa 0,0 l/m 0 min 0 min 0,0 UV-I 0 W/m 30,9 km/h (5 Bft)
11.05.2014 01:32 10,8 C 9,4 C 81 % 1003,3 hPa 0,0 l/m 0 min 0 min 0,0 UV-I 0 W/m 10,3 km/h (2 Bft)
11.05.2014 01:34 10,8 C 8,9 C 81 % 1003,3 hPa 0,0 l/m 0 min 0 min 0,0 UV-I 0 W/m 7,7 km/h (2 Bft)
11.05.2014 01:36 10,8 C 9,4 C 81 % 1003,3 hPa 0,0 l/m 0 min 0 min 0,0 UV-I 0 W/m 10,3 km/h (2 Bft)
11.05.2014 01:38 10,8 C 9,4 C 81 % 1003,3 hPa 0,0 l/m 0 min 0 min 0,0 UV-I 0 W/m 18,0 km/h (3 Bft)
11.05.2014 01:40 10,8 C 9,4 C 81 % 1003,3 hPa 0,0 l/m 0 min 0 min 0,0 UV-I 0 W/m 20,6 km/h (4 Bft)
11.05.2014 01:42 10,7 C 9,4 C 81 % 1003,3 hPa 0,0 l/m 0 min 0 min 0,0 UV-I 0 W/m 38,6 km/h (5 Bft)
11.05.2014 01:44 10,8 C 9,4 C 81 % 1003,3 hPa 0,0 l/m 0 min 0 min 0,0 UV-I 0 W/m 23,2 km/h (4 Bft)
11.05.2014 01:46 10,7 C 8,9 C 81 % 1003,2 hPa 0,0 l/m 0 min 0 min 0,0 UV-I 0 W/m 7,7 km/h (2 Bft)
11.05.2014 01:48 10,7 C 8,9 C 81 % 1003,3 hPa 0,0 l/m 0 min 0 min 0,0 UV-I 0 W/m 18,0 km/h (3 Bft)
11.05.2014 01:50 10,7 C 8,9 C 81 % 1003,2 hPa 0,0 l/m 0 min 0 min 0,0 UV-I 0 W/m 25,7 km/h (4 Bft)
11.05.2014 01:52 10,7 C 8,9 C 81 % 1003,3 hPa 0,0 l/m 0 min 0 min 0,0 UV-I 0 W/m 12,9 km/h (3 Bft)
11.05.2014 01:54 10,6 C 8,9 C 81 % 1003,3 hPa 0,0 l/m 0 min 0 min 0,0 UV-I 0 W/m 18,0 km/h (3 Bft)
11.05.2014 01:56 10,6 C 8,9 C 81 % 1003,1 hPa 0,0 l/m 0 min 0 min 0,0 UV-I 0 W/m 12,9 km/h (3 Bft)
11.05.2014 01:58 10,6 C 8,9 C 81 % 1003,3 hPa 0,0 l/m 0 min 0 min 0,0 UV-I 0 W/m 18,0 km/h (3 Bft)
11.05.2014 02:00 10,6 C 8,9 C 81 % 1003,2 hPa 0,0 l/m 0 min 0 min 0,0 UV-I 0 W/m 33,5 km/h (5 Bft)
11.05.2014 02:02 10,5 C 8,9 C 82 % 1003,3 hPa 0,0 l/m 0 min 0 min 0,0 UV-I 0 W/m 20,6 km/h (4 Bft)
11.05.2014 02:06 10,5 C 8,9 C 81 % 1003,3 hPa 0,0 l/m 0 min 0 min 0,0 UV-I 0 W/m 15,4 km/h (3 Bft)
11.05.2014 02:08 10,5 C 8,9 C 81 % 1003,1 hPa 0,0 l/m 0 min 0 min 0,0 UV-I 0 W/m 18,0 km/h (3 Bft)
11.05.2014 02:10 10,5 C 8,9 C 81 % 1003,1 hPa 0,0 l/m 0 min 0 min 0,0 UV-I 0 W/m 15,4 km/h (3 Bft)
11.05.2014 02:12 10,5 C 8,9 C 81 % 1003,2 hPa 0,0 l/m 0 min 0 min 0,0 UV-I 0 W/m 12,9 km/h (3 Bft)
11.05.2014 02:14 10,5 C 8,9 C 81 % 1003,1 hPa 0,0 l/m 0 min 0 min 0,0 UV-I 0 W/m 20,6 km/h (4 Bft)
11.05.2014 02:16 10,5 C 8,9 C 81 % 1003,1 hPa 0,0 l/m 0 min 0 min 0,0 UV-I 0 W/m 20,6 km/h (4 Bft)
11.05.2014 02:18 10,5 C 8,9 C 81 % 1003,2 hPa 0,0 l/m 0 min 0 min 0,0 UV-I 0 W/m 20,6 km/h (4 Bft)
11.05.2014 02:20 10,4 C 8,9 C 81 % 1003,2 hPa 0,0 l/m 0 min 0 min 0,0 UV-I 0 W/m 12,9 km/h (3 Bft)
11.05.2014 02:22 10,4 C 8,9 C 81 % 1003,2 hPa 0,0 l/m 0 min 0 min 0,0 UV-I 0 W/m 12,9 km/h (3 Bft)
11.05.2014 02:24 10,3 C 8,9 C 82 % 1003,1 hPa 0,0 l/m 0 min 0 min 0,0 UV-I 0 W/m 28,3 km/h (4 Bft)
11.05.2014 02:26 10,3 C 8,9 C 82 % 1003,3 hPa 0,0 l/m 0 min 0 min 0,0 UV-I 0 W/m 30,9 km/h (5 Bft)
11.05.2014 02:28 10,3 C 8,9 C 82 % 1003,2 hPa 0,0 l/m 0 min 0 min 0,0 UV-I 0 W/m 23,2 km/h (4 Bft)
11.05.2014 02:30 10,3 C 8,9 C 82 % 1003,3 hPa 0,0 l/m 0 min 0 min 0,0 UV-I 0 W/m 15,4 km/h (3 Bft)
11.05.2014 02:32 10,3 C 8,9 C 82 % 1003,2 hPa 0,0 l/m 0 min 0 min 0,0 UV-I 0 W/m 7,7 km/h (2 Bft)
11.05.2014 02:34 10,3 C 8,9 C 82 % 1003,2 hPa 0,0 l/m 0 min 0 min 0,0 UV-I 0 W/m 7,7 km/h (2 Bft)
11.05.2014 02:36 10,2 C 8,9 C 82 % 1003,2 hPa 0,0 l/m 0 min 0 min 0,0 UV-I 0 W/m 15,4 km/h (3 Bft)
11.05.2014 02:38 10,2 C 8,9 C 82 % 1003,1 hPa 0,0 l/m 0 min 0 min 0,0 UV-I 0 W/m 10,3 km/h (2 Bft)
11.05.2014 02:40 10,2 C 8,3 C 82 % 1003,2 hPa 0,0 l/m 0 min 0 min 0,0 UV-I 0 W/m 18,0 km/h (3 Bft)
11.05.2014 02:42 10,1 C 8,3 C 82 % 1003,1 hPa 0,0 l/m 0 min 0 min 0,0 UV-I 0 W/m 15,4 km/h (3 Bft)
11.05.2014 02:44 10,1 C 8,3 C 83 % 1003,1 hPa 0,0 l/m 0 min 0 min 0,0 UV-I 0 W/m 10,3 km/h (2 Bft)
11.05.2014 02:46 10,1 C 8,3 C 83 % 1003,1 hPa 0,0 l/m 0 min 0 min 0,0 UV-I 0 W/m 23,2 km/h (4 Bft)
11.05.2014 02:48 10,0 C 8,3 C 83 % 1003,1 hPa 0,0 l/m 0 min 0 min 0,0 UV-I 0 W/m 12,9 km/h (3 Bft)
11.05.2014 02:50 10,0 C 8,3 C 83 % 1003,2 hPa 0,0 l/m 0 min 0 min 0,0 UV-I 0 W/m 18,0 km/h (3 Bft)
11.05.2014 02:52 9,9 C 8,3 C 83 % 1003,2 hPa 0,0 l/m 0 min 0 min 0,0 UV-I 0 W/m 0,0 km/h (0 Bft)
11.05.2014 02:54 9,9 C 8,3 C 83 % 1003,2 hPa 0,0 l/m 0 min 0 min 0,0 UV-I 0 W/m 7,7 km/h (2 Bft)
11.05.2014 02:56 9,9 C 8,3 C 83 % 1003,1 hPa 0,0 l/m 0 min 0 min 0,0 UV-I 0 W/m 15,4 km/h (3 Bft)
11.05.2014 02:58 9,9 C 8,3 C 83 % 1003,1 hPa 0,0 l/m 0 min 0 min 0,0 UV-I 0 W/m 15,4 km/h (3 Bft)
11.05.2014 03:00 9,8 C 8,3 C 83 % 1003,1 hPa 0,0 l/m 0 min 0 min 0,0 UV-I 0 W/m 10,3 km/h (2 Bft)
11.05.2014 03:02 9,8 C 8,3 C 83 % 1003,1 hPa 0,0 l/m 0 min 0 min 0,0 UV-I 0 W/m 18,0 km/h (3 Bft)
11.05.2014 03:06 9,7 C 8,3 C 83 % 1003,1 hPa 0,0 l/m 0 min 0 min 0,0 UV-I 0 W/m 18,0 km/h (3 Bft)
11.05.2014 03:08 9,7 C 7,8 C 84 % 1003,1 hPa 0,0 l/m 0 min 0 min 0,0 UV-I 0 W/m 7,7 km/h (2 Bft)
11.05.2014 03:10 9,7 C 8,3 C 84 % 1003,0 hPa 0,0 l/m 0 min 0 min 0,0 UV-I 0 W/m 25,7 km/h (4 Bft)
11.05.2014 03:12 9,7 C 8,3 C 84 % 1003,1 hPa 0,0 l/m 0 min 0 min 0,0 UV-I 0 W/m 15,4 km/h (3 Bft)
11.05.2014 03:14 9,7 C 8,3 C 83 % 1003,1 hPa 0,0 l/m 0 min 0 min 0,0 UV-I 0 W/m 7,7 km/h (2 Bft)
11.05.2014 03:16 9,7 C 7,8 C 83 % 1003,0 hPa 0,0 l/m 0 min 0 min 0,0 UV-I 0 W/m 18,0 km/h (3 Bft)
11.05.2014 03:18 9,7 C 8,3 C 83 % 1003,0 hPa 0,0 l/m 0 min 0 min 0,0 UV-I 0 W/m 33,5 km/h (5 Bft)
11.05.2014 03:20 9,7 C 8,3 C 83 % 1003,0 hPa 0,0 l/m 0 min 0 min 0,0 UV-I 0 W/m 25,7 km/h (4 Bft)
11.05.2014 03:22 9,7 C 8,3 C 83 % 1003,0 hPa 0,0 l/m 0 min 0 min 0,0 UV-I 0 W/m 12,9 km/h (3 Bft)
11.05.2014 03:24 9,7 C 8,3 C 83 % 1002,9 hPa 0,0 l/m 0 min 0 min 0,0 UV-I 0 W/m 12,9 km/h (3 Bft)
11.05.2014 03:26 9,7 C 8,3 C 83 % 1003,1 hPa 0,0 l/m 0 min 0 min 0,0 UV-I 0 W/m 7,7 km/h (2 Bft)
11.05.2014 03:28 9,7 C 8,3 C 84 % 1002,9 hPa 0,0 l/m 0 min 0 min 0,0 UV-I 0 W/m 23,2 km/h (4 Bft)
11.05.2014 03:30 9,7 C 8,3 C 84 % 1002,9 hPa 0,0 l/m 0 min 0 min 0,0 UV-I 0 W/m 18,0 km/h (3 Bft)
11.05.2014 03:32 9,7 C 8,3 C 84 % 1002,9 hPa 0,0 l/m 0 min 0 min 0,0 UV-I 0 W/m 10,3 km/h (2 Bft)
11.05.2014 03:34 9,7 C 8,3 C 84 % 1002,9 hPa 0,0 l/m 0 min 0 min 0,0 UV-I 0 W/m 7,7 km/h (2 Bft)
11.05.2014 03:36 9,7 C 8,3 C 84 % 1002,9 hPa 0,0 l/m 0 min 0 min 0,0 UV-I 0 W/m 10,3 km/h (2 Bft)
11.05.2014 03:38 9,7 C 8,3 C 84 % 1003,0 hPa 0,0 l/m 0 min 0 min 0,0 UV-I 0 W/m 10,3 km/h (2 Bft)
11.05.2014 03:40 9,7 C 8,3 C 84 % 1003,0 hPa 0,0 l/m 0 min 0 min 0,0 UV-I 0 W/m 20,6 km/h (4 Bft)
11.05.2014 03:42 9,7 C 8,3 C 84 % 1003,0 hPa 0,0 l/m 0 min 0 min 0,0 UV-I 0 W/m 2,6 km/h (1 Bft)
11.05.2014 03:44 9,7 C 8,3 C 84 % 1003,0 hPa 0,0 l/m 0 min 0 min 0,0 UV-I 0 W/m 15,4 km/h (3 Bft)
11.05.2014 03:46 9,7 C 8,3 C 83 % 1003,1 hPa 0,0 l/m 0 min 0 min 0,0 UV-I 0 W/m 20,6 km/h (4 Bft)
11.05.2014 03:48 9,8 C 8,3 C 84 % 1003,1 hPa 0,0 l/m 0 min 0 min 0,0 UV-I 0 W/m 18,0 km/h (3 Bft)
11.05.2014 03:50 9,8 C 8,3 C 84 % 1003,1 hPa 0,0 l/m 0 min 0 min 0,0 UV-I 0 W/m 7,7 km/h (2 Bft)
11.05.2014 03:52 9,8 C 8,3 C 84 % 1003,0 hPa 0,0 l/m 0 min 0 min 0,0 UV-I 0 W/m 18,0 km/h (3 Bft)
11.05.2014 03:54 9,8 C 8,3 C 83 % 1003,0 hPa 0,0 l/m 0 min 0 min 0,0 UV-I 0 W/m 12,9 km/h (3 Bft)
11.05.2014 03:56 9,9 C 8,3 C 83 % 1003,0 hPa 0,0 l/m 0 min 0 min 0,0 UV-I 0 W/m 25,7 km/h (4 Bft)
11.05.2014 03:58 9,9 C 8,3 C 83 % 1003,0 hPa 0,0 l/m 0 min 0 min 0,0 UV-I 0 W/m 18,0 km/h (3 Bft)
11.05.2014 04:00 9,9 C 8,3 C 83 % 1003,1 hPa 0,0 l/m 0 min 0 min 0,0 UV-I 0 W/m 28,3 km/h (4 Bft)
11.05.2014 04:02 9,9 C 8,3 C 83 % 1003,0 hPa 0,0 l/m 0 min 0 min 0,0 UV-I 0 W/m 20,6 km/h (4 Bft)
11.05.2014 04:06 9,8 C 8,3 C 83 % 1003,0 hPa 0,0 l/m 0 min 0 min 0,0 UV-I 0 W/m 10,3 km/h (2 Bft)
11.05.2014 04:08 9,8 C 8,3 C 83 % 1002,9 hPa 0,0 l/m 0 min 0 min 0,0 UV-I 0 W/m 15,4 km/h (3 Bft)
11.05.2014 04:10 9,8 C 8,3 C 83 % 1003,0 hPa 0,0 l/m 0 min 0 min 0,0 UV-I 0 W/m 12,9 km/h (3 Bft)
11.05.2014 04:12 9,7 C 8,3 C 83 % 1003,0 hPa 0,0 l/m 0 min 0 min 0,0 UV-I 0 W/m 25,7 km/h (4 Bft)
11.05.2014 04:14 9,7 C 8,3 C 84 % 1002,9 hPa 0,0 l/m 0 min 0 min 0,0 UV-I 0 W/m 12,9 km/h (3 Bft)
11.05.2014 04:16 9,7 C 8,3 C 84 % 1002,9 hPa 0,0 l/m 0 min 0 min 0,0 UV-I 0 W/m 23,2 km/h (4 Bft)
11.05.2014 04:18 9,8 C 8,3 C 83 % 1003,0 hPa 0,0 l/m 0 min 0 min 0,0 UV-I 0 W/m 33,5 km/h (5 Bft)
11.05.2014 04:20 9,8 C 8,3 C 83 % 1003,0 hPa 0,0 l/m 0 min 0 min 0,0 UV-I 0 W/m 12,9 km/h (3 Bft)
11.05.2014 04:22 9,8 C 8,3 C 83 % 1002,9 hPa 0,0 l/m 0 min 0 min 0,0 UV-I 0 W/m 12,9 km/h (3 Bft)
11.05.2014 04:24 9,9 C 8,3 C 83 % 1003,0 hPa 0,0 l/m 0 min 0 min 0,0 UV-I 0 W/m 18,0 km/h (3 Bft)
11.05.2014 04:26 9,9 C 8,3 C 83 % 1003,0 hPa 0,0 l/m 0 min 0 min 0,0 UV-I 0 W/m 20,6 km/h (4 Bft)
11.05.2014 04:28 9,9 C 8,3 C 83 % 1003,1 hPa 0,0 l/m 0 min 0 min 0,0 UV-I 0 W/m 20,6 km/h (4 Bft)
11.05.2014 04:30 9,9 C 8,3 C 83 % 1002,9 hPa 0,0 l/m 0 min 0 min 0,0 UV-I 0 W/m 12,9 km/h (3 Bft)
11.05.2014 04:32 9,9 C 8,3 C 83 % 1002,9 hPa 0,0 l/m 0 min 0 min 0,0 UV-I 0 W/m 23,2 km/h (4 Bft)
11.05.2014 04:34 9,9 C 8,3 C 83 % 1002,9 hPa 0,0 l/m 0 min 0 min 0,0 UV-I 0 W/m 15,4 km/h (3 Bft)
11.05.2014 04:36 9,9 C 8,3 C 83 % 1002,8 hPa 0,0 l/m 0 min 0 min 0,0 UV-I 0 W/m 15,4 km/h (3 Bft)
11.05.2014 04:38 9,8 C 8,3 C 83 % 1002,9 hPa 0,0 l/m 0 min 0 min 0,0 UV-I 0 W/m 10,3 km/h (2 Bft)
11.05.2014 04:40 9,8 C 8,3 C 83 % 1003,0 hPa 0,0 l/m 0 min 0 min 0,0 UV-I 0 W/m 7,7 km/h (2 Bft)
11.05.2014 04:42 9,8 C 8,3 C 83 % 1002,9 hPa 0,0 l/m 0 min 0 min 0,0 UV-I 0 W/m 12,9 km/h (3 Bft)
11.05.2014 04:44 9,8 C 8,3 C 83 % 1002,9 hPa 0,0 l/m 0 min 0 min 0,0 UV-I 0 W/m 18,0 km/h (3 Bft)
11.05.2014 04:46 9,8 C 8,3 C 83 % 1002,9 hPa 0,0 l/m 0 min 0 min 0,0 UV-I 0 W/m 18,0 km/h (3 Bft)
11.05.2014 04:48 9,8 C 8,3 C 82 % 1002,8 hPa 0,0 l/m 0 min 0 min 0,0 UV-I 0 W/m 23,2 km/h (4 Bft)
11.05.2014 04:50 9,8 C 8,3 C 82 % 1002,8 hPa 0,0 l/m 0 min 0 min 0,0 UV-I 0 W/m 12,9 km/h (3 Bft)
11.05.2014 04:52 9,9 C 8,3 C 82 % 1002,9 hPa 0,0 l/m 0 min 0 min 0,0 UV-I 0 W/m 20,6 km/h (4 Bft)
11.05.2014 04:54 9,9 C 8,3 C 82 % 1002,9 hPa 0,0 l/m 0 min 0 min 0,0 UV-I 0 W/m 20,6 km/h (4 Bft)
11.05.2014 04:56 9,9 C 8,3 C 82 % 1002,8 hPa 0,0 l/m 0 min 0 min 0,0 UV-I 0 W/m 23,2 km/h (4 Bft)
11.05.2014 04:58 9,8 C 8,3 C 82 % 1002,8 hPa 0,0 l/m 0 min 0 min 0,0 UV-I 0 W/m 10,3 km/h (2 Bft)
11.05.2014 05:00 9,8 C 8,3 C 82 % 1002,8 hPa 0,0 l/m 0 min 0 min 0,0 UV-I 0 W/m 18,0 km/h (3 Bft)
11.05.2014 05:02 9,8 C 8,3 C 82 % 1002,8 hPa 0,0 l/m 0 min 0 min 0,0 UV-I 0 W/m 20,6 km/h (4 Bft)
11.05.2014 05:06 9,7 C 8,3 C 83 % 1002,7 hPa 0,0 l/m 0 min 0 min 0,0 UV-I 0 W/m 18,0 km/h (3 Bft)
11.05.2014 05:08 9,7 C 8,3 C 83 % 1002,7 hPa 0,0 l/m 0 min 0 min 0,0 UV-I 0 W/m 20,6 km/h (4 Bft)
11.05.2014 05:10 9,7 C 8,3 C 83 % 1002,8 hPa 0,0 l/m 0 min 0 min 0,0 UV-I 0 W/m 12,9 km/h (3 Bft)
11.05.2014 05:12 9,7 C 8,3 C 83 % 1002,7 hPa 0,0 l/m 0 min 0 min 0,0 UV-I 0 W/m 23,2 km/h (4 Bft)
11.05.2014 05:14 9,7 C 8,3 C 83 % 1002,6 hPa 0,0 l/m 0 min 0 min 0,0 UV-I 0 W/m 12,9 km/h (3 Bft)
11.05.2014 05:16 9,7 C 8,3 C 83 % 1002,6 hPa 0,0 l/m 0 min 0 min 0,0 UV-I 0 W/m 12,9 km/h (3 Bft)
11.05.2014 05:18 9,7 C 8,3 C 83 % 1002,6 hPa 0,0 l/m 0 min 0 min 0,0 UV-I 0 W/m 10,3 km/h (2 Bft)
11.05.2014 05:20 9,7 C 8,3 C 83 % 1002,6 hPa 0,0 l/m 0 min 0 min 0,0 UV-I 0 W/m 10,3 km/h (2 Bft)
11.05.2014 05:22 9,7 C 8,3 C 83 % 1002,6 hPa 0,0 l/m 0 min 0 min 0,0 UV-I 0 W/m 12,9 km/h (3 Bft)
11.05.2014 05:24 9,6 C 8,3 C 83 % 1002,7 hPa 0,0 l/m 0 min 0 min 0,0 UV-I 0 W/m 15,4 km/h (3 Bft)
11.05.2014 05:26 9,6 C 8,3 C 83 % 1002,6 hPa 0,0 l/m 0 min 0 min 0,0 UV-I 0 W/m 5,1 km/h (1 Bft)
11.05.2014 05:28 9,6 C 8,3 C 83 % 1002,7 hPa 0,0 l/m 0 min 0 min 0,0 UV-I 0 W/m 18,0 km/h (3 Bft)
11.05.2014 05:30 9,6 C 8,3 C 83 % 1002,7 hPa 0,0 l/m 0 min 0 min 0,0 UV-I 0 W/m 25,7 km/h (4 Bft)
11.05.2014 05:32 9,6 C 8,3 C 83 % 1002,8 hPa 0,0 l/m 0 min 0 min 0,0 UV-I 0 W/m 30,9 km/h (5 Bft)
11.05.2014 05:34 9,6 C 8,3 C 83 % 1002,7 hPa 0,0 l/m 0 min 0 min 0,0 UV-I 0 W/m 23,2 km/h (4 Bft)
11.05.2014 05:36 9,6 C 8,3 C 83 % 1002,7 hPa 0,0 l/m 0 min 0 min 0,0 UV-I 0 W/m 23,2 km/h (4 Bft)
11.05.2014 05:38 9,7 C 8,3 C 82 % 1002,7 hPa 0,0 l/m 0 min 0 min 0,0 UV-I 0 W/m 18,0 km/h (3 Bft)
11.05.2014 05:40 9,7 C 8,3 C 82 % 1002,7 hPa 0,0 l/m 0 min 0 min 0,0 UV-I 0 W/m 20,6 km/h (4 Bft)
11.05.2014 05:42 9,7 C 8,3 C 82 % 1002,8 hPa 0,0 l/m 0 min 0 min 0,0 UV-I 0 W/m 20,6 km/h (4 Bft)
11.05.2014 05:44 9,7 C 8,3 C 82 % 1002,7 hPa 0,0 l/m 0 min 0 min 0,0 UV-I 0 W/m 12,9 km/h (3 Bft)
11.05.2014 05:46 9,7 C 8,3 C 82 % 1002,6 hPa 0,0 l/m 0 min 0 min 0,0 UV-I 0 W/m 15,4 km/h (3 Bft)
11.05.2014 05:48 9,6 C 7,8 C 82 % 1002,6 hPa 0,0 l/m 0 min 0 min 0,0 UV-I 0 W/m 7,7 km/h (2 Bft)
11.05.2014 05:50 9,6 C 7,8 C 82 % 1002,6 hPa 0,0 l/m 0 min 0 min 0,0 UV-I 5 W/m 12,9 km/h (3 Bft)
11.05.2014 05:52 9,5 C 7,8 C 82 % 1002,7 hPa 0,0 l/m 0 min 0 min 0,0 UV-I 5 W/m 23,2 km/h (4 Bft)
11.05.2014 05:54 9,5 C 7,8 C 82 % 1002,6 hPa 0,0 l/m 0 min 0 min 0,0 UV-I 5 W/m 15,4 km/h (3 Bft)
11.05.2014 05:56 9,4 C 7,8 C 82 % 1002,6 hPa 0,0 l/m 0 min 0 min 0,0 UV-I 7 W/m 18,0 km/h (3 Bft)
11.05.2014 05:58 9,4 C 7,8 C 82 % 1002,5 hPa 0,0 l/m 0 min 0 min 0,0 UV-I 7 W/m 15,4 km/h (3 Bft)
11.05.2014 06:00 9,4 C 7,8 C 82 % 1002,5 hPa 0,0 l/m 0 min 0 min 0,0 UV-I 7 W/m 10,3 km/h (2 Bft)
11.05.2014 06:02 9,3 C 7,8 C 83 % 1002,5 hPa 0,0 l/m 0 min 0 min 0,0 UV-I 9 W/m 18,0 km/h (3 Bft)
11.05.2014 06:05 9,2 C 7,8 C 83 % 1002,5 hPa 0,0 l/m 0 min 0 min 0,0 UV-I 11 W/m 23,2 km/h (4 Bft)
11.05.2014 06:06 9,2 C 7,8 C 83 % 1002,5 hPa 0,0 l/m 0 min 0 min 0,0 UV-I 11 W/m 7,7 km/h (2 Bft)
11.05.2014 06:08 9,2 C 7,8 C 83 % 1002,6 hPa 0,0 l/m 0 min 0 min 0,0 UV-I 11 W/m 12,9 km/h (3 Bft)
11.05.2014 06:10 9,2 C 7,8 C 83 % 1002,5 hPa 0,0 l/m 0 min 0 min 0,0 UV-I 19 W/m 20,6 km/h (4 Bft)
11.05.2014 06:12 9,2 C 7,8 C 83 % 1002,5 hPa 0,0 l/m 2 min 0 min 0,0 UV-I 32 W/m 12,9 km/h (3 Bft)
11.05.2014 06:14 9,2 C 7,8 C 83 % 1002,5 hPa 0,0 l/m 0 min 0 min 0,0 UV-I 19 W/m 15,4 km/h (3 Bft)
11.05.2014 06:16 9,2 C 7,8 C 83 % 1002,5 hPa 0,0 l/m 0 min 0 min 0,0 UV-I 16 W/m 18,0 km/h (3 Bft)
11.05.2014 06:18 9,2 C 7,8 C 83 % 1002,5 hPa 0,0 l/m 0 min 0 min 0,0 UV-I 14 W/m 15,4 km/h (3 Bft)
11.05.2014 06:20 9,2 C 7,8 C 83 % 1002,4 hPa 0,0 l/m 0 min 0 min 0,0 UV-I 16 W/m 23,2 km/h (4 Bft)
11.05.2014 06:22 9,2 C 7,8 C 83 % 1002,5 hPa 0,0 l/m 0 min 0 min 0,0 UV-I 19 W/m 20,6 km/h (4 Bft)
11.05.2014 06:24 9,2 C 7,8 C 83 % 1002,4 hPa 0,0 l/m 0 min 0 min 0,0 UV-I 19 W/m 18,0 km/h (3 Bft)
11.05.2014 06:26 9,2 C 7,8 C 84 % 1002,4 hPa 0,0 l/m 0 min 0 min 0,0 UV-I 21 W/m 12,9 km/h (3 Bft)
11.05.2014 06:28 9,1 C 7,8 C 84 % 1002,4 hPa 0,0 l/m 0 min 0 min 0,0 UV-I 21 W/m 0,0 km/h (0 Bft)
11.05.2014 06:30 9,1 C 7,8 C 84 % 1002,4 hPa 0,0 l/m 0 min 0 min 0,0 UV-I 23 W/m 36,0 km/h (5 Bft)
11.05.2014 06:32 9,1 C 7,8 C 84 % 1002,5 hPa 0,0 l/m 0 min 0 min 0,0 UV-I 28 W/m 23,2 km/h (4 Bft)
11.05.2014 06:34 9,2 C 7,8 C 84 % 1002,5 hPa 0,0 l/m 0 min 0 min 0,0 UV-I 35 W/m 10,3 km/h (2 Bft)
11.05.2014 06:36 9,2 C 7,8 C 84 % 1002,4 hPa 0,0 l/m 0 min 0 min 0,0 UV-I 40 W/m 30,9 km/h (5 Bft)
11.05.2014 06:38 9,2 C 7,8 C 84 % 1002,4 hPa 0,0 l/m 0 min 0 min 0,0 UV-I 39 W/m 33,5 km/h (5 Bft)
11.05.2014 06:40 9,3 C 7,8 C 84 % 1002,5 hPa 0,0 l/m 0 min 0 min 0,0 UV-I 40 W/m 30,9 km/h (5 Bft)
11.05.2014 06:42 9,3 C 7,8 C 84 % 1002,6 hPa 0,0 l/m 0 min 0 min 0,0 UV-I 39 W/m 33,5 km/h (5 Bft)
11.05.2014 06:44 9,3 C 7,8 C 84 % 1002,5 hPa 0,0 l/m 0 min 0 min 0,0 UV-I 40 W/m 23,2 km/h (4 Bft)
11.05.2014 06:46 9,4 C 7,8 C 83 % 1002,5 hPa 0,0 l/m 0 min 0 min 0,0 UV-I 49 W/m 18,0 km/h (3 Bft)
11.05.2014 06:48 9,4 C 8,3 C 83 % 1002,6 hPa 0,0 l/m 0 min 0 min 0,0 UV-I 49 W/m 20,6 km/h (4 Bft)
11.05.2014 06:50 9,4 C 8,3 C 83 % 1002,4 hPa 0,0 l/m 0 min 0 min 0,0 UV-I 51 W/m 28,3 km/h (4 Bft)
11.05.2014 06:52 9,5 C 8,3 C 83 % 1002,5 hPa 0,0 l/m 0 min 0 min 0,0 UV-I 49 W/m 25,7 km/h (4 Bft)
11.05.2014 06:54 9,5 C 8,3 C 83 % 1002,5 hPa 0,0 l/m 0 min 0 min 0,0 UV-I 42 W/m 28,3 km/h (4 Bft)
11.05.2014 06:56 9,6 C 8,3 C 83 % 1002,6 hPa 0,0 l/m 0 min 0 min 0,0 UV-I 39 W/m 23,2 km/h (4 Bft)
11.05.2014 06:58 9,6 C 8,3 C 83 % 1002,6 hPa 0,0 l/m 0 min 0 min 0,0 UV-I 39 W/m 25,7 km/h (4 Bft)
11.05.2014 07:00 9,6 C 8,3 C 83 % 1002,6 hPa 0,0 l/m 0 min 0 min 0,0 UV-I 46 W/m 23,2 km/h (4 Bft)
11.05.2014 07:02 9,6 C 8,3 C 82 % 1002,6 hPa 0,0 l/m 0 min 0 min 0,0 UV-I 37 W/m 23,2 km/h (4 Bft)
11.05.2014 07:05 9,6 C 8,3 C 82 % 1002,5 hPa 0,0 l/m 0 min 0 min 0,0 UV-I 67 W/m 20,6 km/h (4 Bft)
11.05.2014 07:06 9,6 C 8,3 C 82 % 1002,5 hPa 0,0 l/m 0 min 0 min 0,0 UV-I 90 W/m 2,6 km/h (1 Bft)
11.05.2014 07:08 9,6 C 8,3 C 82 % 1002,6 hPa 0,0 l/m 0 min 0 min 0,0 UV-I 77 W/m 18,0 km/h (3 Bft)
11.05.2014 07:10 9,7 C 8,3 C 82 % 1002,6 hPa 0,0 l/m 0 min 0 min 0,0 UV-I 79 W/m 25,7 km/h (4 Bft)
11.05.2014 07:12 9,7 C 8,3 C 82 % 1002,6 hPa 0,0 l/m 0 min 0 min 0,0 UV-I 83 W/m 23,2 km/h (4 Bft)
11.05.2014 07:14 9,7 C 8,9 C 82 % 1002,6 hPa 0,0 l/m 2 min 0 min 0,0 UV-I 109 W/m 18,0 km/h (3 Bft)
11.05.2014 07:16 9,8 C 8,9 C 82 % 1002,6 hPa 0,0 l/m 0 min 0 min 0,0 UV-I 86 W/m 28,3 km/h (4 Bft)
11.05.2014 07:18 9,8 C 8,9 C 82 % 1002,7 hPa 0,0 l/m 0 min 0 min 0,0 UV-I 70 W/m 30,9 km/h (5 Bft)
11.05.2014 07:20 9,8 C 8,9 C 81 % 1002,6 hPa 0,0 l/m 0 min 0 min 0,0 UV-I 70 W/m 18,0 km/h (3 Bft)
11.05.2014 07:22 9,8 C 8,9 C 81 % 1002,6 hPa 0,0 l/m 0 min 0 min 0,0 UV-I 65 W/m 33,5 km/h (5 Bft)
11.05.2014 07:24 9,8 C 8,9 C 81 % 1002,6 hPa 0,0 l/m 0 min 0 min 0,0 UV-I 83 W/m 30,9 km/h (5 Bft)
11.05.2014 07:26 9,8 C 8,9 C 82 % 1002,7 hPa 0,0 l/m 0 min 0 min 0,0 UV-I 90 W/m 28,3 km/h (4 Bft)
11.05.2014 07:28 9,8 C 8,9 C 81 % 1002,5 hPa 0,0 l/m 0 min 0 min 0,0 UV-I 79 W/m 28,3 km/h (4 Bft)
11.05.2014 07:30 9,8 C 8,9 C 82 % 1002,4 hPa 0,0 l/m 0 min 0 min 0,0 UV-I 91 W/m 18,0 km/h (3 Bft)
11.05.2014 07:32 9,8 C 8,9 C 82 % 1002,5 hPa 0,0 l/m 0 min 0 min 0,0 UV-I 90 W/m 18,0 km/h (3 Bft)
11.05.2014 07:34 9,8 C 8,9 C 82 % 1002,5 hPa 0,0 l/m 0 min 0 min 0,0 UV-I 105 W/m 20,6 km/h (4 Bft)
11.05.2014 07:36 9,9 C 8,9 C 82 % 1002,6 hPa 0,0 l/m 0 min 0 min 0,0 UV-I 111 W/m 28,3 km/h (4 Bft)
11.05.2014 07:38 9,9 C 8,9 C 82 % 1002,5 hPa 0,0 l/m 0 min 0 min 0,0 UV-I 116 W/m 33,5 km/h (5 Bft)
11.05.2014 07:40 9,9 C 8,9 C 81 % 1002,6 hPa 0,0 l/m 0 min 0 min 0,0 UV-I 109 W/m 20,6 km/h (4 Bft)
11.05.2014 07:42 9,9 C 8,9 C 82 % 1002,5 hPa 0,0 l/m 0 min 0 min 0,0 UV-I 105 W/m 30,9 km/h (5 Bft)
11.05.2014 07:44 9,9 C 8,9 C 81 % 1002,5 hPa 0,0 l/m 0 min 0 min 0,0 UV-I 93 W/m 28,3 km/h (4 Bft)
11.05.2014 07:46 10,0 C 8,9 C 81 % 1002,5 hPa 0,0 l/m 0 min 0 min 0,0 UV-I 100 W/m 20,6 km/h (4 Bft)
11.05.2014 07:48 10,0 C 8,9 C 81 % 1002,5 hPa 0,0 l/m 0 min 0 min 0,0 UV-I 98 W/m 28,3 km/h (4 Bft)
11.05.2014 07:50 10,0 C 8,9 C 81 % 1002,6 hPa 0,0 l/m 0 min 0 min 0,0 UV-I 102 W/m 36,0 km/h (5 Bft)
11.05.2014 07:52 10,0 C 8,9 C 82 % 1002,5 hPa 0,0 l/m 0 min 0 min 0,0 UV-I 105 W/m 36,0 km/h (5 Bft)
11.05.2014 07:54 10,0 C 8,9 C 81 % 1002,5 hPa 0,0 l/m 0 min 0 min 0,0 UV-I 111 W/m 33,5 km/h (5 Bft)
11.05.2014 07:56 10,0 C 8,9 C 81 % 1002,6 hPa 0,0 l/m 0 min 0 min 0,0 UV-I 114 W/m 25,7 km/h (4 Bft)
11.05.2014 07:58 10,0 C 8,9 C 81 % 1002,5 hPa 0,0 l/m 0 min 0 min 0,0 UV-I 118 W/m 46,3 km/h (6 Bft)
11.05.2014 08:00 10,1 C 8,9 C 81 % 1002,8 hPa 0,0 l/m 0 min 0 min 0,0 UV-I 116 W/m 30,9 km/h (5 Bft)
11.05.2014 08:02 10,1 C 8,9 C 80 % 1002,4 hPa 0,0 l/m 0 min 0 min 0,0 UV-I 116 W/m 20,6 km/h (4 Bft)
11.05.2014 08:05 10,1 C 8,9 C 80 % 1002,5 hPa 0,0 l/m 0 min 0 min 0,0 UV-I 121 W/m 33,5 km/h (5 Bft)
11.05.2014 08:06 10,1 C 8,9 C 80 % 1002,5 hPa 0,0 l/m 0 min 0 min 0,0 UV-I 120 W/m 28,3 km/h (4 Bft)
11.05.2014 08:08 10,1 C 8,9 C 80 % 1002,5 hPa 0,0 l/m 0 min 0 min 0,0 UV-I 125 W/m 28,3 km/h (4 Bft)
11.05.2014 08:10 10,1 C 8,9 C 80 % 1002,7 hPa 0,0 l/m 0 min 0 min 0,0 UV-I 125 W/m 18,0 km/h (3 Bft)
11.05.2014 08:12 10,1 C 8,9 C 80 % 1002,6 hPa 0,0 l/m 2 min 0 min 0,0 UV-I 220 W/m 20,6 km/h (4 Bft)
11.05.2014 08:14 10,1 C 8,9 C 80 % 1002,5 hPa 0,0 l/m 2 min 0 min 0,0 UV-I 207 W/m 25,7 km/h (4 Bft)
11.05.2014 08:16 10,2 C 8,9 C 80 % 1002,5 hPa 0,0 l/m 0 min 0 min 0,0 UV-I 151 W/m 33,5 km/h (5 Bft)
11.05.2014 08:18 10,2 C 8,9 C 80 % 1002,5 hPa 0,0 l/m 0 min 0 min 0,0 UV-I 167 W/m 25,7 km/h (4 Bft)
11.05.2014 08:20 10,2 C 8,9 C 80 % 1002,6 hPa 0,0 l/m 2 min 0 min 0,0 UV-I 232 W/m 33,5 km/h (5 Bft)
11.05.2014 08:22 10,3 C 9,4 C 80 % 1002,6 hPa 0,0 l/m 0 min 0 min 0,0 UV-I 144 W/m 20,6 km/h (4 Bft)
11.05.2014 08:24 10,3 C 9,4 C 80 % 1002,5 hPa 0,0 l/m 0 min 0 min 0,0 UV-I 144 W/m 30,9 km/h (5 Bft)
11.05.2014 08:26 10,3 C 9,4 C 80 % 1002,6 hPa 0,0 l/m 2 min 0 min 0,0 UV-I 283 W/m 30,9 km/h (5 Bft)
11.05.2014 08:28 10,4 C 9,4 C 80 % 1002,6 hPa 0,0 l/m 2 min 0 min 0,0 UV-I 230 W/m 23,2 km/h (4 Bft)
11.05.2014 08:30 10,5 C 9,4 C 80 % 1002,6 hPa 0,0 l/m 0 min 0 min 0,0 UV-I 153 W/m 36,0 km/h (5 Bft)
11.05.2014 08:32 10,5 C 9,4 C 80 % 1002,6 hPa 0,0 l/m 0 min 0 min 0,0 UV-I 134 W/m 15,4 km/h (3 Bft)
11.05.2014 08:34 10,5 C 9,4 C 79 % 1002,6 hPa 0,0 l/m 0 min 0 min 0,0 UV-I 121 W/m 20,6 km/h (4 Bft)
11.05.2014 08:36 10,5 C 9,4 C 80 % 1002,6 hPa 0,0 l/m 0 min 0 min 0,0 UV-I 151 W/m 18,0 km/h (3 Bft)
11.05.2014 08:38 10,5 C 9,4 C 80 % 1002,7 hPa 0,0 l/m 0 min 0 min 0,0 UV-I 211 W/m 15,4 km/h (3 Bft)
11.05.2014 08:40 10,5 C 9,4 C 80 % 1002,6 hPa 0,0 l/m 0 min 0 min 0,0 UV-I 141 W/m 20,6 km/h (4 Bft)
11.05.2014 08:42 10,5 C 9,4 C 80 % 1002,6 hPa 0,0 l/m 0 min 0 min 0,0 UV-I 162 W/m 25,7 km/h (4 Bft)
11.05.2014 08:44 10,6 C 9,4 C 80 % 1002,6 hPa 0,0 l/m 0 min 0 min 0,0 UV-I 188 W/m 38,6 km/h (5 Bft)
11.05.2014 08:46 10,6 C 9,4 C 79 % 1002,6 hPa 0,0 l/m 0 min 0 min 0,0 UV-I 216 W/m 12,9 km/h (3 Bft)
11.05.2014 08:48 10,6 C 9,4 C 79 % 1002,7 hPa 0,0 l/m 0 min 0 min 0,0 UV-I 114 W/m 23,2 km/h (4 Bft)
11.05.2014 08:50 10,6 C 9,4 C 79 % 1002,5 hPa 0,0 l/m 0 min 0 min 0,0 UV-I 149 W/m 20,6 km/h (4 Bft)
11.05.2014 08:52 10,6 C 9,4 C 79 % 1002,5 hPa 0,0 l/m 0 min 0 min 0,0 UV-I 163 W/m 25,7 km/h (4 Bft)
11.05.2014 08:54 10,6 C 10,0 C 79 % 1002,6 hPa 0,0 l/m 0 min 0 min 0,0 UV-I 176 W/m 23,2 km/h (4 Bft)
11.05.2014 08:56 10,6 C 10,0 C 80 % 1002,6 hPa 0,0 l/m 0 min 0 min 0,0 UV-I 227 W/m 54,1 km/h (7 Bft)
11.05.2014 08:58 10,6 C 10,0 C 79 % 1002,6 hPa 0,0 l/m 2 min 0 min 0,0 UV-I 285 W/m 30,9 km/h (5 Bft)
11.05.2014 09:00 10,7 C 10,0 C 79 % 1002,6 hPa 0,0 l/m 0 min 0 min 0,0 UV-I 225 W/m 20,6 km/h (4 Bft)
11.05.2014 09:02 10,7 C 10,0 C 79 % 1002,6 hPa 0,0 l/m 0 min 0 min 0,0 UV-I 156 W/m 28,3 km/h (4 Bft)
11.05.2014 09:05 10,7 C 10,0 C 78 % 1002,6 hPa 0,0 l/m 0 min 0 min 0,0 UV-I 113 W/m 25,7 km/h (4 Bft)
11.05.2014 09:06 10,7 C 9,4 C 78 % 1002,6 hPa 0,0 l/m 0 min 0 min 0,0 UV-I 86 W/m 18,0 km/h (3 Bft)
11.05.2014 09:08 10,7 C 9,4 C 78 % 1002,6 hPa 0,0 l/m 0 min 0 min 0,0 UV-I 76 W/m 20,6 km/h (4 Bft)
11.05.2014 09:10 10,6 C 9,4 C 78 % 1002,6 hPa 0,0 l/m 0 min 0 min 0,0 UV-I 67 W/m 12,9 km/h (3 Bft)
11.05.2014 09:12 10,6 C 9,4 C 78 % 1002,7 hPa 0,0 l/m 0 min 0 min 0,0 UV-I 67 W/m 18,0 km/h (3 Bft)
11.05.2014 09:14 10,5 C 9,4 C 78 % 1002,8 hPa 0,0 l/m 0 min 0 min 0,0 UV-I 67 W/m 30,9 km/h (5 Bft)
11.05.2014 09:16 10,4 C 9,4 C 78 % 1002,7 hPa 0,0 l/m 0 min 0 min 0,0 UV-I 65 W/m 23,2 km/h (4 Bft)
11.05.2014 09:18 10,4 C 9,4 C 78 % 1002,6 hPa 0,0 l/m 0 min 0 min 0,0 UV-I 60 W/m 30,9 km/h (5 Bft)
11.05.2014 09:20 10,4 C 9,4 C 78 % 1002,7 hPa 0,0 l/m 0 min 0 min 0,0 UV-I 54 W/m 18,0 km/h (3 Bft)
11.05.2014 09:22 10,3 C 8,9 C 79 % 1002,8 hPa 0,0 l/m 0 min 0 min 0,0 UV-I 51 W/m 28,3 km/h (4 Bft)
11.05.2014 09:24 10,3 C 8,9 C 79 % 1002,7 hPa 0,0 l/m 0 min 0 min 0,0 UV-I 62 W/m 12,9 km/h (3 Bft)
11.05.2014 09:26 10,3 C 8,9 C 80 % 1002,7 hPa 0,0 l/m 0 min 0 min 0,0 UV-I 58 W/m 15,4 km/h (3 Bft)
11.05.2014 09:28 10,3 C 8,9 C 79 % 1002,6 hPa 0,0 l/m 0 min 0 min 0,0 UV-I 70 W/m 15,4 km/h (3 Bft)
11.05.2014 09:30 10,3 C 9,4 C 79 % 1002,8 hPa 0,0 l/m 0 min 0 min 0,0 UV-I 86 W/m 15,4 km/h (3 Bft)
11.05.2014 09:32 10,3 C 9,4 C 79 % 1002,9 hPa 0,0 l/m 0 min 0 min 0,0 UV-I 95 W/m 15,4 km/h (3 Bft)
11.05.2014 09:34 10,3 C 9,4 C 79 % 1002,9 hPa 0,0 l/m 0 min 0 min 0,0 UV-I 107 W/m 25,7 km/h (4 Bft)
11.05.2014 09:36 10,3 C 9,4 C 79 % 1002,8 hPa 0,0 l/m 0 min 0 min 0,0 UV-I 158 W/m 23,2 km/h (4 Bft)
11.05.2014 09:38 10,3 C 9,4 C 79 % 1002,8 hPa 0,0 l/m 0 min 0 min 0,5 UV-I 148 W/m 28,3 km/h (4 Bft)
11.05.2014 09:40 10,4 C 10,0 C 78 % 1002,9 hPa 0,0 l/m 2 min 0 min 0,8 UV-I 475 W/m 28,3 km/h (4 Bft)
11.05.2014 09:42 10,7 C 10,6 C 78 % 1002,9 hPa 0,0 l/m 2 min 0 min 0,8 UV-I 441 W/m 18,0 km/h (3 Bft)
11.05.2014 09:44 10,9 C 11,1 C 77 % 1002,8 hPa 0,0 l/m 2 min 0 min 0,8 UV-I 475 W/m 20,6 km/h (4 Bft)
11.05.2014 09:46 11,1 C 11,1 C 77 % 1002,9 hPa 0,0 l/m 2 min 0 min 0,0 UV-I 429 W/m 25,7 km/h (4 Bft)
11.05.2014 09:48 11,2 C 11,1 C 76 % 1002,8 hPa 0,0 l/m 2 min 0 min 0,7 UV-I 390 W/m 15,4 km/h (3 Bft)
11.05.2014 09:50 11,3 C 11,7 C 75 % 1002,9 hPa 0,0 l/m 2 min 0 min 0,0 UV-I 454 W/m 36,0 km/h (5 Bft)
11.05.2014 09:52 11,4 C 11,1 C 75 % 1002,8 hPa 0,0 l/m 0 min 0 min 0,0 UV-I 207 W/m 18,0 km/h (3 Bft)
11.05.2014 09:54 11,4 C 11,1 C 75 % 1002,9 hPa 0,0 l/m 0 min 0 min 0,0 UV-I 209 W/m 12,9 km/h (3 Bft)
11.05.2014 09:56 11,3 C 10,6 C 75 % 1002,9 hPa 0,0 l/m 0 min 0 min 0,0 UV-I 121 W/m 23,2 km/h (4 Bft)
11.05.2014 09:58 11,3 C 10,6 C 76 % 1003,0 hPa 0,0 l/m 0 min 2 min 0,0 UV-I 113 W/m 20,6 km/h (4 Bft)
11.05.2014 10:00 11,2 C 10,0 C 77 % 1002,9 hPa 0,0 l/m 0 min 2 min 0,0 UV-I 128 W/m 30,9 km/h (5 Bft)
11.05.2014 10:02 11,0 C 9,4 C 78 % 1002,9 hPa 0,0 l/m 0 min 2 min 0,0 UV-I 123 W/m 38,6 km/h (5 Bft)
11.05.2014 10:05 10,7 C 8,3 C 80 % 1003,0 hPa 0,0 l/m 0 min 2 min 0,0 UV-I 121 W/m 41,2 km/h (6 Bft)
11.05.2014 10:06 10,6 C 8,3 C 80 % 1003,0 hPa 0,0 l/m 0 min 1 min 0,0 UV-I 121 W/m 7,7 km/h (2 Bft)
11.05.2014 10:08 10,3 C 8,3 C 82 % 1003,2 hPa 0,0 l/m 0 min 2 min 0,0 UV-I 88 W/m 15,4 km/h (3 Bft)
11.05.2014 10:10 10,1 C 7,8 C 84 % 1003,3 hPa 0,2 l/m 0 min 2 min 0,0 UV-I 132 W/m 23,2 km/h (4 Bft)
11.05.2014 10:12 9,9 C 7,8 C 85 % 1003,1 hPa 0,0 l/m 0 min 2 min 0,0 UV-I 171 W/m 25,7 km/h (4 Bft)
11.05.2014 10:14 9,8 C 7,8 C 86 % 1003,1 hPa 0,0 l/m 0 min 2 min 0,0 UV-I 169 W/m 10,3 km/h (2 Bft)
11.05.2014 10:16 9,7 C 8,9 C 87 % 1003,1 hPa 0,0 l/m 0 min 0 min 1,3 UV-I 169 W/m 10,3 km/h (2 Bft)
11.05.2014 10:18 9,8 C 10,0 C 88 % 1003,1 hPa 0,0 l/m 2 min 0 min 1,4 UV-I 592 W/m 20,6 km/h (4 Bft)
11.05.2014 10:20 10,1 C 10,6 C 89 % 1003,1 hPa 0,0 l/m 2 min 0 min 1,3 UV-I 557 W/m 15,4 km/h (3 Bft)
11.05.2014 10:22 10,2 C 10,6 C 89 % 1003,1 hPa 0,0 l/m 2 min 0 min 1,2 UV-I 476 W/m 10,3 km/h (2 Bft)
11.05.2014 10:24 10,4 C 10,0 C 88 % 1003,1 hPa 0,0 l/m 2 min 0 min 1,3 UV-I 513 W/m 20,6 km/h (4 Bft)
11.05.2014 10:26 10,7 C 10,0 C 88 % 1003,0 hPa 0,0 l/m 2 min 0 min 1,3 UV-I 490 W/m 20,6 km/h (4 Bft)
11.05.2014 10:28 10,8 C 10,0 C 87 % 1003,0 hPa 0,0 l/m 2 min 0 min 1,1 UV-I 524 W/m 20,6 km/h (4 Bft)
11.05.2014 10:30 10,9 C 9,4 C 86 % 1003,1 hPa 0,0 l/m 0 min 0 min 0,5 UV-I 223 W/m 25,7 km/h (4 Bft)
11.05.2014 10:32 10,9 C 9,4 C 85 % 1003,1 hPa 0,0 l/m 0 min 2 min 0,0 UV-I 232 W/m 20,6 km/h (4 Bft)
11.05.2014 10:34 10,9 C 9,4 C 85 % 1003,2 hPa 0,0 l/m 0 min 2 min 0,0 UV-I 148 W/m 25,7 km/h (4 Bft)
11.05.2014 10:36 10,8 C 8,9 C 84 % 1003,3 hPa 0,0 l/m 0 min 2 min 0,5 UV-I 172 W/m 15,4 km/h (3 Bft)
11.05.2014 10:38 10,7 C 8,9 C 84 % 1003,3 hPa 0,0 l/m 0 min 2 min 0,5 UV-I 186 W/m 25,7 km/h (4 Bft)
11.05.2014 10:40 10,5 C 8,3 C 84 % 1003,3 hPa 0,0 l/m 0 min 2 min 0,6 UV-I 220 W/m 33,5 km/h (5 Bft)
11.05.2014 10:42 10,3 C 8,3 C 84 % 1003,3 hPa 0,0 l/m 0 min 2 min 0,6 UV-I 221 W/m 20,6 km/h (4 Bft)
11.05.2014 10:44 10,2 C 8,3 C 84 % 1003,3 hPa 0,0 l/m 0 min 2 min 0,8 UV-I 271 W/m 20,6 km/h (4 Bft)
11.05.2014 10:46 10,2 C 9,4 C 85 % 1003,2 hPa 0,0 l/m 2 min 2 min 1,2 UV-I 489 W/m 18,0 km/h (3 Bft)
11.05.2014 10:48 10,4 C 10,6 C 86 % 1003,2 hPa 0,0 l/m 2 min 2 min 1,5 UV-I 489 W/m 20,6 km/h (4 Bft)
11.05.2014 10:50 10,7 C 10,0 C 86 % 1003,2 hPa 0,0 l/m 2 min 0 min 1,3 UV-I 446 W/m 12,9 km/h (3 Bft)
11.05.2014 10:52 10,9 C 10,6 C 86 % 1003,0 hPa 0,0 l/m 2 min 0 min 1,2 UV-I 478 W/m 20,6 km/h (4 Bft)
11.05.2014 10:54 11,0 C 10,6 C 85 % 1003,0 hPa 0,0 l/m 2 min 0 min 1,4 UV-I 496 W/m 30,9 km/h (5 Bft)
11.05.2014 10:56 11,1 C 10,6 C 84 % 1002,9 hPa 0,0 l/m 2 min 2 min 1,3 UV-I 566 W/m 18,0 km/h (3 Bft)
11.05.2014 10:58 11,3 C 11,1 C 83 % 1002,9 hPa 0,0 l/m 2 min 0 min 1,2 UV-I 392 W/m 18,0 km/h (3 Bft)
11.05.2014 11:00 11,5 C 11,7 C 83 % 1003,0 hPa 0,0 l/m 2 min 0 min 1,6 UV-I 608 W/m 23,2 km/h (4 Bft)
11.05.2014 11:02 11,7 C 11,7 C 81 % 1003,0 hPa 0,0 l/m 2 min 0 min 1,7 UV-I 698 W/m 23,2 km/h (4 Bft)
11.05.2014 11:05 12,1 C 12,2 C 80 % 1002,9 hPa 0,0 l/m 2 min 0 min 1,6 UV-I 698 W/m 18,0 km/h (3 Bft)
11.05.2014 11:06 12,1 C 11,7 C 79 % 1002,9 hPa 0,0 l/m 1 min 0 min 1,3 UV-I 698 W/m 12,9 km/h (3 Bft)
11.05.2014 11:08 12,2 C 11,7 C 77 % 1002,9 hPa 0,0 l/m 2 min 0 min 1,4 UV-I 429 W/m 30,9 km/h (5 Bft)
11.05.2014 11:10 12,2 C 11,7 C 75 % 1002,9 hPa 0,0 l/m 2 min 0 min 1,4 UV-I 429 W/m 23,2 km/h (4 Bft)
11.05.2014 11:12 12,2 C 11,7 C 75 % 1002,9 hPa 0,0 l/m 0 min 0 min 1,4 UV-I 387 W/m 18,0 km/h (3 Bft)
11.05.2014 11:14 12,3 C 11,7 C 74 % 1002,8 hPa 0,0 l/m 2 min 0 min 1,5 UV-I 517 W/m 23,2 km/h (4 Bft)
11.05.2014 11:16 12,3 C 11,7 C 73 % 1002,7 hPa 0,0 l/m 2 min 0 min 2,6 UV-I 508 W/m 15,4 km/h (3 Bft)
11.05.2014 11:18 12,5 C 12,2 C 73 % 1002,8 hPa 0,0 l/m 2 min 0 min 1,6 UV-I 508 W/m 30,9 km/h (5 Bft)
11.05.2014 11:20 12,6 C 12,2 C 73 % 1002,8 hPa 0,0 l/m 2 min 0 min 1,7 UV-I 446 W/m 10,3 km/h (2 Bft)
11.05.2014 11:22 12,8 C 12,8 C 72 % 1002,7 hPa 0,0 l/m 0 min 0 min 1,1 UV-I 373 W/m 36,0 km/h (5 Bft)
11.05.2014 11:24 12,8 C 12,2 C 72 % 1002,6 hPa 0,0 l/m 0 min 0 min 1,1 UV-I 387 W/m 25,7 km/h (4 Bft)
11.05.2014 11:26 12,7 C 12,2 C 71 % 1002,8 hPa 0,0 l/m 0 min 0 min 0,9 UV-I 313 W/m 23,2 km/h (4 Bft)
11.05.2014 11:28 12,7 C 12,8 C 71 % 1002,8 hPa 0,0 l/m 2 min 0 min 1,5 UV-I 554 W/m 23,2 km/h (4 Bft)
11.05.2014 11:30 12,7 C 12,2 C 70 % 1002,8 hPa 0,0 l/m 2 min 0 min 0,7 UV-I 455 W/m 48,9 km/h (6 Bft)
11.05.2014 11:32 12,6 C 11,7 C 69 % 1002,8 hPa 0,0 l/m 0 min 0 min 0,0 UV-I 248 W/m 28,3 km/h (4 Bft)
11.05.2014 11:34 12,5 C 11,7 C 69 % 1002,7 hPa 0,0 l/m 0 min 0 min 0,5 UV-I 262 W/m 30,9 km/h (5 Bft)
11.05.2014 11:36 12,4 C 11,7 C 70 % 1002,6 hPa 0,0 l/m 0 min 0 min 0,9 UV-I 309 W/m 36,0 km/h (5 Bft)
11.05.2014 11:38 12,4 C 12,2 C 70 % 1002,7 hPa 0,0 l/m 0 min 0 min 2,0 UV-I 387 W/m 30,9 km/h (5 Bft)
11.05.2014 11:40 12,6 C 12,8 C 70 % 1002,6 hPa 0,0 l/m 0 min 0 min 2,2 UV-I 387 W/m 18,0 km/h (3 Bft)
11.05.2014 11:42 12,9 C 13,3 C 71 % 1002,6 hPa 0,0 l/m 0 min 0 min 1,1 UV-I 387 W/m 25,7 km/h (4 Bft)
11.05.2014 11:44 13,0 C 13,3 C 70 % 1002,7 hPa 0,0 l/m 0 min 0 min 1,0 UV-I 360 W/m 18,0 km/h (3 Bft)
11.05.2014 11:46 13,1 C 12,8 C 71 % 1002,8 hPa 0,0 l/m 0 min 0 min 1,2 UV-I 392 W/m 20,6 km/h (4 Bft)
11.05.2014 11:48 13,1 C 12,8 C 71 % 1002,8 hPa 0,0 l/m 2 min 0 min 0,9 UV-I 466 W/m 23,2 km/h (4 Bft)
11.05.2014 11:50 13,1 C 12,2 C 68 % 1002,6 hPa 0,0 l/m 0 min 0 min 0,7 UV-I 320 W/m 30,9 km/h (5 Bft)
11.05.2014 11:52 12,9 C 12,2 C 67 % 1002,7 hPa 0,0 l/m 0 min 0 min 0,7 UV-I 299 W/m 33,5 km/h (5 Bft)
11.05.2014 11:54 12,8 C 12,2 C 67 % 1002,7 hPa 0,0 l/m 0 min 0 min 0,6 UV-I 281 W/m 30,9 km/h (5 Bft)
11.05.2014 11:56 12,7 C 11,7 C 67 % 1002,8 hPa 0,0 l/m 0 min 0 min 0,7 UV-I 283 W/m 25,7 km/h (4 Bft)
11.05.2014 11:58 12,7 C 11,7 C 66 % 1002,8 hPa 0,0 l/m 0 min 0 min 0,8 UV-I 309 W/m 38,6 km/h (5 Bft)
11.05.2014 12:00 12,7 C 12,2 C 67 % 1002,8 hPa 0,0 l/m 0 min 0 min 1,7 UV-I 383 W/m 23,2 km/h (4 Bft)
11.05.2014 12:02 12,8 C 12,2 C 67 % 1002,8 hPa 0,0 l/m 0 min 0 min 1,0 UV-I 394 W/m 30,9 km/h (5 Bft)
11.05.2014 12:05 12,9 C 12,8 C 67 % 1002,7 hPa 0,0 l/m 0 min 0 min 1,1 UV-I 369 W/m 23,2 km/h (4 Bft)
11.05.2014 12:06 12,9 C 12,8 C 66 % 1002,7 hPa 0,0 l/m 0 min 0 min 1,2 UV-I 380 W/m 18,0 km/h (3 Bft)
11.05.2014 12:08 12,9 C 12,8 C 67 % 1002,7 hPa 0,0 l/m 0 min 0 min 1,3 UV-I 376 W/m 25,7 km/h (4 Bft)
11.05.2014 12:10 12,9 C 12,8 C 67 % 1002,7 hPa 0,0 l/m 0 min 0 min 1,3 UV-I 383 W/m 18,0 km/h (3 Bft)
11.05.2014 12:12 13,0 C 12,8 C 68 % 1002,6 hPa 0,0 l/m 0 min 0 min 1,4 UV-I 383 W/m 23,2 km/h (4 Bft)
11.05.2014 12:14 13,1 C 12,8 C 68 % 1002,6 hPa 0,0 l/m 0 min 0 min 1,4 UV-I 394 W/m 7,7 km/h (2 Bft)
11.05.2014 12:16 13,1 C 12,8 C 68 % 1002,6 hPa 0,0 l/m 0 min 0 min 1,5 UV-I 396 W/m 18,0 km/h (3 Bft)
11.05.2014 12:18 13,2 C 13,3 C 69 % 1002,6 hPa 0,0 l/m 0 min 0 min 1,2 UV-I 396 W/m 20,6 km/h (4 Bft)
11.05.2014 12:20 13,3 C 13,3 C 68 % 1002,6 hPa 0,0 l/m 0 min 0 min 0,9 UV-I 285 W/m 10,3 km/h (2 Bft)
11.05.2014 12:22 13,3 C 13,3 C 70 % 1002,6 hPa 0,0 l/m 0 min 0 min 1,0 UV-I 322 W/m 7,7 km/h (2 Bft)
11.05.2014 12:24 13,2 C 12,8 C 68 % 1002,7 hPa 0,0 l/m 0 min 2 min 1,1 UV-I 336 W/m 28,3 km/h (4 Bft)
11.05.2014 12:26 13,1 C 12,8 C 69 % 1002,8 hPa 0,0 l/m 0 min 0 min 0,6 UV-I 267 W/m 36,0 km/h (5 Bft)
11.05.2014 12:28 12,8 C 11,7 C 69 % 1002,9 hPa 0,0 l/m 0 min 2 min 0,0 UV-I 163 W/m 33,5 km/h (5 Bft)
11.05.2014 12:30 12,6 C 11,1 C 71 % 1003,0 hPa 0,0 l/m 0 min 2 min 0,0 UV-I 167 W/m 30,9 km/h (5 Bft)
11.05.2014 12:32 12,2 C 10,0 C 75 % 1003,0 hPa 0,0 l/m 0 min 2 min 0,7 UV-I 237 W/m 25,7 km/h (4 Bft)
11.05.2014 12:34 11,8 C 10,0 C 76 % 1003,0 hPa 0,0 l/m 0 min 2 min 1,2 UV-I 339 W/m 28,3 km/h (4 Bft)
11.05.2014 12:36 11,6 C 10,0 C 80 % 1003,0 hPa 0,0 l/m 0 min 2 min 1,4 UV-I 392 W/m 12,9 km/h (3 Bft)
11.05.2014 12:38 11,4 C 10,0 C 79 % 1003,0 hPa 0,0 l/m 0 min 2 min 1,7 UV-I 439 W/m 23,2 km/h (4 Bft)
11.05.2014 12:40 11,6 C 10,6 C 81 % 1003,0 hPa 0,0 l/m 2 min 2 min 1,7 UV-I 464 W/m 20,6 km/h (4 Bft)
11.05.2014 12:42 11,7 C 11,1 C 80 % 1003,0 hPa 0,0 l/m 2 min 2 min 2,0 UV-I 587 W/m 33,5 km/h (5 Bft)
11.05.2014 12:44 11,9 C 11,7 C 79 % 1003,0 hPa 0,0 l/m 2 min 2 min 1,8 UV-I 538 W/m 23,2 km/h (4 Bft)
11.05.2014 12:46 12,1 C 12,2 C 79 % 1002,9 hPa 0,0 l/m 2 min 2 min 1,8 UV-I 538 W/m 15,4 km/h (3 Bft)
11.05.2014 12:48 12,2 C 12,2 C 76 % 1002,8 hPa 0,0 l/m 2 min 2 min 1,6 UV-I 462 W/m 36,0 km/h (5 Bft)
11.05.2014 12:50 12,3 C 12,2 C 75 % 1002,7 hPa 0,0 l/m 2 min 2 min 2,7 UV-I 499 W/m 36,0 km/h (5 Bft)
11.05.2014 12:52 12,6 C 13,3 C 75 % 1002,7 hPa 0,0 l/m 2 min 0 min 2,2 UV-I 610 W/m 18,0 km/h (3 Bft)
11.05.2014 12:54 12,9 C 13,9 C 74 % 1002,7 hPa 0,0 l/m 2 min 0 min 2,7 UV-I 956 W/m 12,9 km/h (3 Bft)
11.05.2014 12:56 13,2 C 13,9 C 73 % 1002,7 hPa 0,0 l/m 2 min 0 min 2,4 UV-I 884 W/m 20,6 km/h (4 Bft)
11.05.2014 12:58 13,5 C 14,4 C 74 % 1002,6 hPa 0,0 l/m 2 min 0 min 2,2 UV-I 849 W/m 12,9 km/h (3 Bft)
11.05.2014 13:00 13,7 C 13,9 C 71 % 1002,6 hPa 0,0 l/m 2 min 0 min 2,0 UV-I 568 W/m 30,9 km/h (5 Bft)
11.05.2014 13:02 13,6 C 13,9 C 70 % 1002,7 hPa 0,0 l/m 2 min 0 min 2,0 UV-I 563 W/m 18,0 km/h (3 Bft)
11.05.2014 13:05 13,7 C 13,9 C 71 % 1002,5 hPa 0,0 l/m 2 min 0 min 1,9 UV-I 684 W/m 25,7 km/h (4 Bft)
11.05.2014 13:06 13,7 C 13,9 C 71 % 1002,5 hPa 0,0 l/m 1 min 0 min 1,8 UV-I 684 W/m 15,4 km/h (3 Bft)
11.05.2014 13:08 13,7 C 13,9 C 71 % 1002,5 hPa 0,0 l/m 0 min 0 min 1,6 UV-I 410 W/m 7,7 km/h (2 Bft)
11.05.2014 13:10 13,7 C 13,9 C 71 % 1002,5 hPa 0,0 l/m 0 min 0 min 1,2 UV-I 364 W/m 18,0 km/h (3 Bft)
11.05.2014 13:12 13,7 C 13,3 C 69 % 1002,7 hPa 0,0 l/m 0 min 0 min 1,1 UV-I 306 W/m 23,2 km/h (4 Bft)
11.05.2014 13:14 13,6 C 13,3 C 68 % 1002,5 hPa 0,0 l/m 0 min 0 min 1,0 UV-I 316 W/m 30,9 km/h (5 Bft)
11.05.2014 13:16 13,6 C 12,8 C 68 % 1002,6 hPa 0,0 l/m 0 min 0 min 0,7 UV-I 281 W/m 20,6 km/h (4 Bft)
11.05.2014 13:18 13,6 C 12,8 C 68 % 1002,6 hPa 0,0 l/m 0 min 0 min 1,0 UV-I 253 W/m 30,9 km/h (5 Bft)
11.05.2014 13:20 13,6 C 13,3 C 68 % 1002,5 hPa 0,0 l/m 0 min 0 min 1,4 UV-I 309 W/m 46,3 km/h (6 Bft)
11.05.2014 13:22 13,7 C 13,3 C 68 % 1002,4 hPa 0,0 l/m 0 min 0 min 1,4 UV-I 294 W/m 33,5 km/h (5 Bft)
11.05.2014 13:24 13,7 C 13,3 C 67 % 1002,5 hPa 0,2 l/m 0 min 0 min 1,2 UV-I 285 W/m 38,6 km/h (5 Bft)
11.05.2014 13:26 13,8 C 13,3 C 67 % 1002,6 hPa 0,0 l/m 0 min 0 min 1,5 UV-I 338 W/m 38,6 km/h (5 Bft)
11.05.2014 13:28 13,9 C 13,3 C 67 % 1002,5 hPa 0,0 l/m 0 min 0 min 1,5 UV-I 338 W/m 30,9 km/h (5 Bft)
11.05.2014 13:30 14,1 C 13,9 C 67 % 1002,5 hPa 0,0 l/m 2 min 0 min 1,7 UV-I 970 W/m 33,5 km/h (5 Bft)
11.05.2014 13:32 14,2 C 14,4 C 67 % 1002,5 hPa 0,0 l/m 0 min 0 min 1,4 UV-I 392 W/m 23,2 km/h (4 Bft)
11.05.2014 13:34 14,4 C 14,4 C 66 % 1002,5 hPa 0,0 l/m 2 min 0 min 1,7 UV-I 540 W/m 33,5 km/h (5 Bft)
11.05.2014 13:36 14,3 C 14,4 C 65 % 1002,4 hPa 0,0 l/m 2 min 0 min 2,1 UV-I 524 W/m 33,5 km/h (5 Bft)
11.05.2014 13:38 14,4 C 14,4 C 65 % 1002,6 hPa 0,0 l/m 2 min 0 min 1,9 UV-I 524 W/m 36,0 km/h (5 Bft)
11.05.2014 13:40 14,3 C 13,9 C 63 % 1002,5 hPa 0,0 l/m 0 min 0 min 1,6 UV-I 438 W/m 36,0 km/h (5 Bft)
11.05.2014 13:42 14,3 C 13,9 C 64 % 1002,6 hPa 0,0 l/m 2 min 0 min 1,5 UV-I 461 W/m 38,6 km/h (5 Bft)
11.05.2014 13:44 14,4 C 14,4 C 65 % 1002,4 hPa 0,0 l/m 2 min 0 min 1,4 UV-I 461 W/m 23,2 km/h (4 Bft)
11.05.2014 13:46 14,5 C 14,4 C 66 % 1002,4 hPa 0,0 l/m 0 min 0 min 0,9 UV-I 309 W/m 20,6 km/h (4 Bft)
11.05.2014 13:48 14,5 C 13,9 C 65 % 1002,5 hPa 0,0 l/m 0 min 0 min 0,9 UV-I 330 W/m 54,1 km/h (7 Bft)
11.05.2014 13:50 14,3 C 13,9 C 65 % 1002,4 hPa 0,0 l/m 0 min 0 min 1,1 UV-I 336 W/m 28,3 km/h (4 Bft)
11.05.2014 13:52 14,2 C 13,3 C 64 % 1002,5 hPa 0,0 l/m 0 min 0 min 1,4 UV-I 387 W/m 33,5 km/h (5 Bft)
11.05.2014 13:54 14,2 C 13,9 C 64 % 1002,5 hPa 0,0 l/m 2 min 0 min 4,0 UV-I 468 W/m 25,7 km/h (4 Bft)
11.05.2014 13:56 14,2 C 14,4 C 64 % 1002,5 hPa 0,0 l/m 2 min 0 min 1,7 UV-I 468 W/m 20,6 km/h (4 Bft)
11.05.2014 13:58 14,4 C 14,4 C 65 % 1002,4 hPa 0,0 l/m 2 min 0 min 4,0 UV-I 468 W/m 25,7 km/h (4 Bft)
11.05.2014 14:00 14,6 C 14,4 C 64 % 1002,4 hPa 0,0 l/m 2 min 0 min 3,1 UV-I 835 W/m 33,5 km/h (5 Bft)
11.05.2014 14:02 14,8 C 15,0 C 66 % 1002,4 hPa 0,0 l/m 0 min 0 min 1,5 UV-I 281 W/m 18,0 km/h (3 Bft)
11.05.2014 14:05 14,8 C 15,0 C 65 % 1002,4 hPa 0,0 l/m 0 min 0 min 1,5 UV-I 429 W/m 25,7 km/h (4 Bft)
11.05.2014 14:06 14,8 C 15,0 C 65 % 1002,4 hPa 0,0 l/m 0 min 0 min 1,7 UV-I 429 W/m 12,9 km/h (3 Bft)
11.05.2014 14:08 14,9 C 15,0 C 66 % 1002,4 hPa 0,0 l/m 0 min 0 min 3,5 UV-I 429 W/m 12,9 km/h (3 Bft)
11.05.2014 14:10 15,1 C 15,6 C 65 % 1002,4 hPa 0,0 l/m 0 min 0 min 4,1 UV-I 429 W/m 15,4 km/h (3 Bft)
11.05.2014 14:12 15,2 C 15,6 C 66 % 1002,4 hPa 0,0 l/m 0 min 0 min 1,6 UV-I 374 W/m 12,9 km/h (3 Bft)
11.05.2014 14:14 15,2 C 15,0 C 64 % 1002,3 hPa 0,0 l/m 0 min 0 min 1,3 UV-I 434 W/m 15,4 km/h (3 Bft)
11.05.2014 14:16 15,0 C 14,4 C 65 % 1002,4 hPa 0,0 l/m 0 min 0 min 1,0 UV-I 322 W/m 20,6 km/h (4 Bft)
11.05.2014 14:18 14,8 C 14,4 C 63 % 1002,3 hPa 0,0 l/m 0 min 0 min 1,1 UV-I 359 W/m 12,9 km/h (3 Bft)
11.05.2014 14:20 14,8 C 14,4 C 66 % 1002,3 hPa 0,0 l/m 0 min 0 min 0,9 UV-I 299 W/m 12,9 km/h (3 Bft)
11.05.2014 14:22 14,7 C 14,4 C 66 % 1002,3 hPa 0,0 l/m 0 min 0 min 1,0 UV-I 308 W/m 15,4 km/h (3 Bft)
11.05.2014 14:24 14,6 C 13,9 C 65 % 1002,5 hPa 0,0 l/m 0 min 0 min 0,7 UV-I 264 W/m 36,0 km/h (5 Bft)
11.05.2014 14:26 14,5 C 13,9 C 65 % 1002,4 hPa 0,0 l/m 0 min 0 min 0,8 UV-I 271 W/m 20,6 km/h (4 Bft)
11.05.2014 14:28 14,3 C 13,3 C 64 % 1002,3 hPa 0,0 l/m 0 min 0 min 0,5 UV-I 234 W/m 36,0 km/h (5 Bft)
11.05.2014 14:30 14,2 C 13,3 C 65 % 1002,4 hPa 0,0 l/m 0 min 0 min 0,0 UV-I 199 W/m 23,2 km/h (4 Bft)
11.05.2014 14:32 14,2 C 12,8 C 66 % 1002,5 hPa 0,0 l/m 0 min 0 min 0,0 UV-I 130 W/m 15,4 km/h (3 Bft)
11.05.2014 14:34 14,0 C 12,8 C 67 % 1002,9 hPa 0,0 l/m 2 min 2 min 1,7 UV-I 547 W/m 30,9 km/h (5 Bft)
11.05.2014 14:36 13,7 C 12,8 C 69 % 1003,0 hPa 0,0 l/m 2 min 2 min 1,3 UV-I 506 W/m 25,7 km/h (4 Bft)
11.05.2014 14:38 13,3 C 12,2 C 72 % 1002,7 hPa 0,0 l/m 0 min 2 min 0,8 UV-I 287 W/m 12,9 km/h (3 Bft)
11.05.2014 14:40 13,1 C 11,7 C 73 % 1002,6 hPa 0,0 l/m 0 min 2 min 0,6 UV-I 223 W/m 18,0 km/h (3 Bft)
11.05.2014 14:42 12,9 C 11,7 C 74 % 1002,6 hPa 0,0 l/m 0 min 0 min 0,7 UV-I 234 W/m 10,3 km/h (2 Bft)
11.05.2014 14:44 12,8 C 12,2 C 74 % 1002,5 hPa 0,0 l/m 0 min 2 min 1,0 UV-I 285 W/m 18,0 km/h (3 Bft)
11.05.2014 14:46 12,8 C 12,2 C 75 % 1002,5 hPa 0,0 l/m 0 min 0 min 2,0 UV-I 330 W/m 15,4 km/h (3 Bft)
11.05.2014 14:48 13,1 C 12,8 C 74 % 1002,4 hPa 0,0 l/m 0 min 0 min 1,7 UV-I 330 W/m 7,7 km/h (2 Bft)
11.05.2014 14:50 13,4 C 13,3 C 74 % 1002,4 hPa 0,0 l/m 0 min 0 min 2,1 UV-I 404 W/m 7,7 km/h (2 Bft)
11.05.2014 14:52 13,7 C 13,9 C 74 % 1002,4 hPa 0,0 l/m 0 min 0 min 1,6 UV-I 404 W/m 15,4 km/h (3 Bft)
11.05.2014 14:54 14,1 C 14,4 C 71 % 1002,4 hPa 0,0 l/m 2 min 0 min 1,6 UV-I 575 W/m 23,2 km/h (4 Bft)
11.05.2014 14:56 14,2 C 14,4 C 71 % 1002,4 hPa 0,0 l/m 0 min 0 min 3,5 UV-I 359 W/m 12,9 km/h (3 Bft)
11.05.2014 14:58 14,6 C 14,4 C 70 % 1002,3 hPa 0,0 l/m 2 min 0 min 1,5 UV-I 872 W/m 20,6 km/h (4 Bft)
11.05.2014 15:00 14,8 C 14,4 C 67 % 1002,3 hPa 0,0 l/m 0 min 0 min 1,4 UV-I 313 W/m 25,7 km/h (4 Bft)
11.05.2014 15:02 14,9 C 15,0 C 67 % 1002,3 hPa 0,0 l/m 0 min 0 min 3,2 UV-I 343 W/m 18,0 km/h (3 Bft)
11.05.2014 15:05 15,1 C 15,0 C 64 % 1002,3 hPa 0,0 l/m 2 min 0 min 2,8 UV-I 788 W/m 15,4 km/h (3 Bft)
11.05.2014 15:06 15,2 C 15,6 C 64 % 1002,3 hPa 0,0 l/m 1 min 0 min 2,1 UV-I 840 W/m 7,7 km/h (2 Bft)
11.05.2014 15:08 15,4 C 15,6 C 64 % 1002,3 hPa 0,0 l/m 2 min 0 min 1,3 UV-I 840 W/m 20,6 km/h (4 Bft)
11.05.2014 15:10 15,3 C 15,0 C 64 % 1002,3 hPa 0,0 l/m 0 min 0 min 1,1 UV-I 285 W/m 28,3 km/h (4 Bft)
11.05.2014 15:12 15,2 C 14,4 C 65 % 1002,4 hPa 0,0 l/m 0 min 0 min 2,0 UV-I 350 W/m 23,2 km/h (4 Bft)
11.05.2014 15:14 15,1 C 15,0 C 65 % 1002,3 hPa 0,0 l/m 2 min 0 min 1,7 UV-I 650 W/m 15,4 km/h (3 Bft)
11.05.2014 15:16 15,2 C 15,0 C 65 % 1002,3 hPa 0,0 l/m 0 min 0 min 0,0 UV-I 185 W/m 18,0 km/h (3 Bft)
11.05.2014 15:18 15,1 C 13,9 C 64 % 1002,4 hPa 0,0 l/m 0 min 0 min 0,0 UV-I 155 W/m 23,2 km/h (4 Bft)
11.05.2014 15:20 14,8 C 13,3 C 64 % 1002,5 hPa 0,0 l/m 0 min 2 min 0,0 UV-I 190 W/m 12,9 km/h (3 Bft)
11.05.2014 15:22 14,6 C 13,9 C 66 % 1002,5 hPa 0,0 l/m 0 min 0 min 1,1 UV-I 246 W/m 12,9 km/h (3 Bft)
11.05.2014 15:24 14,5 C 13,9 C 66 % 1002,5 hPa 0,0 l/m 0 min 0 min 1,3 UV-I 369 W/m 23,2 km/h (4 Bft)
11.05.2014 15:26 14,5 C 13,9 C 66 % 1002,5 hPa 0,0 l/m 2 min 0 min 1,6 UV-I 469 W/m 41,2 km/h (6 Bft)
11.05.2014 15:28 14,5 C 14,4 C 68 % 1002,6 hPa 0,0 l/m 2 min 0 min 3,0 UV-I 800 W/m 28,3 km/h (4 Bft)
11.05.2014 15:30 14,7 C 15,0 C 68 % 1002,6 hPa 0,0 l/m 2 min 0 min 3,0 UV-I 800 W/m 18,0 km/h (3 Bft)
11.05.2014 15:32 15,0 C 16,1 C 67 % 1002,7 hPa 0,0 l/m 2 min 0 min 3,1 UV-I 814 W/m 28,3 km/h (4 Bft)
11.05.2014 15:34 15,1 C 16,7 C 63 % 1002,6 hPa 0,0 l/m 2 min 0 min 3,1 UV-I 835 W/m 30,9 km/h (5 Bft)
11.05.2014 15:36 15,2 C 17,8 C 63 % 1002,7 hPa 0,0 l/m 2 min 0 min 3,1 UV-I 830 W/m 33,5 km/h (5 Bft)
11.05.2014 15:38 15,3 C 18,3 C 63 % 1002,6 hPa 0,0 l/m 2 min 0 min 2,9 UV-I 793 W/m 15,4 km/h (3 Bft)
11.05.2014 15:40 15,5 C 17,8 C 64 % 1002,6 hPa 0,0 l/m 2 min 0 min 2,6 UV-I 668 W/m 25,7 km/h (4 Bft)
11.05.2014 15:42 15,7 C 17,2 C 63 % 1002,6 hPa 0,0 l/m 2 min 0 min 2,7 UV-I 744 W/m 30,9 km/h (5 Bft)
11.05.2014 15:44 15,7 C 16,7 C 61 % 1002,6 hPa 0,0 l/m 2 min 0 min 2,5 UV-I 687 W/m 15,4 km/h (3 Bft)
11.05.2014 15:46 15,6 C 16,7 C 60 % 1002,6 hPa 0,0 l/m 2 min 0 min 2,5 UV-I 675 W/m 36,0 km/h (5 Bft)
11.05.2014 15:48 15,5 C 16,1 C 60 % 1002,6 hPa 0,0 l/m 2 min 0 min 2,5 UV-I 673 W/m 33,5 km/h (5 Bft)
11.05.2014 15:50 15,6 C 16,7 C 63 % 1002,5 hPa 0,0 l/m 2 min 0 min 2,3 UV-I 809 W/m 10,3 km/h (2 Bft)
11.05.2014 15:52 15,7 C 16,7 C 63 % 1002,5 hPa 0,0 l/m 2 min 0 min 2,1 UV-I 798 W/m 15,4 km/h (3 Bft)
11.05.2014 15:54 15,9 C 16,7 C 61 % 1002,6 hPa 0,0 l/m 2 min 0 min 0,9 UV-I 798 W/m 23,2 km/h (4 Bft)
11.05.2014 15:56 15,7 C 15,6 C 62 % 1002,6 hPa 0,0 l/m 0 min 0 min 0,8 UV-I 279 W/m 18,0 km/h (3 Bft)
11.05.2014 15:58 15,4 C 15,6 C 63 % 1002,6 hPa 0,0 l/m 2 min 0 min 1,4 UV-I 397 W/m 15,4 km/h (3 Bft)
11.05.2014 16:00 15,4 C 15,6 C 64 % 1002,6 hPa 0,0 l/m 2 min 0 min 2,3 UV-I 399 W/m 7,7 km/h (2 Bft)
11.05.2014 16:02 15,4 C 15,6 C 64 % 1002,7 hPa 0,0 l/m 0 min 0 min 1,0 UV-I 223 W/m 23,2 km/h (4 Bft)
11.05.2014 16:05 15,1 C 15,0 C 64 % 1002,6 hPa 0,0 l/m 0 min 0 min 0,8 UV-I 316 W/m 20,6 km/h (4 Bft)
11.05.2014 16:06 15,0 C 14,4 C 64 % 1002,6 hPa 0,0 l/m 1 min 0 min 1,6 UV-I 385 W/m 18,0 km/h (3 Bft)
11.05.2014 16:08 14,8 C 14,4 C 65 % 1002,6 hPa 0,0 l/m 2 min 0 min 1,0 UV-I 424 W/m 23,2 km/h (4 Bft)
11.05.2014 16:10 14,8 C 14,4 C 65 % 1002,7 hPa 0,0 l/m 2 min 0 min 0,9 UV-I 424 W/m 20,6 km/h (4 Bft)
11.05.2014 16:12 14,8 C 14,4 C 66 % 1002,7 hPa 0,0 l/m 0 min 0 min 1,6 UV-I 271 W/m 15,4 km/h (3 Bft)
11.05.2014 16:14 15,0 C 15,0 C 67 % 1002,7 hPa 0,0 l/m 2 min 0 min 1,5 UV-I 578 W/m 12,9 km/h (3 Bft)
11.05.2014 16:16 15,1 C 15,0 C 67 % 1002,7 hPa 0,0 l/m 0 min 0 min 0,6 UV-I 227 W/m 12,9 km/h (3 Bft)
11.05.2014 16:18 15,1 C 15,0 C 65 % 1002,7 hPa 0,0 l/m 0 min 0 min 0,6 UV-I 244 W/m 10,3 km/h (2 Bft)
11.05.2014 16:20 15,0 C 14,4 C 64 % 1002,6 hPa 0,0 l/m 0 min 0 min 0,0 UV-I 204 W/m 12,9 km/h (3 Bft)
11.05.2014 16:22 14,9 C 13,9 C 63 % 1002,7 hPa 0,0 l/m 0 min 0 min 0,0 UV-I 171 W/m 25,7 km/h (4 Bft)
11.05.2014 16:24 14,7 C 13,9 C 64 % 1002,7 hPa 0,0 l/m 0 min 0 min 0,0 UV-I 193 W/m 15,4 km/h (3 Bft)
11.05.2014 16:26 14,6 C 13,9 C 64 % 1002,7 hPa 0,0 l/m 0 min 0 min 0,0 UV-I 148 W/m 30,9 km/h (5 Bft)
11.05.2014 16:28 14,5 C 13,3 C 64 % 1002,7 hPa 0,0 l/m 0 min 0 min 0,0 UV-I 135 W/m 18,0 km/h (3 Bft)
11.05.2014 16:30 14,4 C 13,3 C 65 % 1002,6 hPa 0,0 l/m 0 min 0 min 0,0 UV-I 93 W/m 20,6 km/h (4 Bft)
11.05.2014 16:32 14,3 C 13,3 C 65 % 1002,7 hPa 0,0 l/m 0 min 0 min 0,0 UV-I 97 W/m 20,6 km/h (4 Bft)
11.05.2014 16:34 14,2 C 12,8 C 66 % 1002,7 hPa 0,0 l/m 0 min 2 min 0,0 UV-I 72 W/m 7,7 km/h (2 Bft)
11.05.2014 16:36 14,2 C 12,8 C 67 % 1002,8 hPa 0,0 l/m 0 min 0 min 0,0 UV-I 42 W/m 12,9 km/h (3 Bft)
11.05.2014 16:38 14,2 C 12,8 C 67 % 1002,9 hPa 0,0 l/m 0 min 0 min 0,0 UV-I 32 W/m 15,4 km/h (3 Bft)
11.05.2014 16:40 14,1 C 12,2 C 67 % 1003,1 hPa 0,0 l/m 0 min 2 min 0,0 UV-I 32 W/m 20,6 km/h (4 Bft)
11.05.2014 16:42 13,9 C 11,1 C 71 % 1003,3 hPa 0,0 l/m 0 min 2 min 0,0 UV-I 32 W/m 10,3 km/h (2 Bft)
11.05.2014 16:44 13,7 C 10,0 C 74 % 1003,5 hPa 0,2 l/m 0 min 2 min 0,0 UV-I 37 W/m 12,9 km/h (3 Bft)
11.05.2014 16:46 13,1 C 9,4 C 78 % 1003,7 hPa 0,4 l/m 0 min 2 min 0,0 UV-I 33 W/m 10,3 km/h (2 Bft)
11.05.2014 16:48 12,4 C 9,4 C 82 % 1003,8 hPa 0,4 l/m 0 min 2 min 0,0 UV-I 40 W/m 15,4 km/h (3 Bft)
11.05.2014 16:50 11,9 C 9,4 C 83 % 1003,8 hPa 0,2 l/m 0 min 2 min 0,0 UV-I 60 W/m 12,9 km/h (3 Bft)
11.05.2014 16:52 11,4 C 9,4 C 85 % 1003,8 hPa 0,2 l/m 0 min 2 min 0,0 UV-I 107 W/m 10,3 km/h (2 Bft)
11.05.2014 16:54 11,1 C 10,0 C 87 % 1003,8 hPa 0,0 l/m 0 min 2 min 0,0 UV-I 174 W/m 7,7 km/h (2 Bft)
11.05.2014 16:56 11,0 C 10,0 C 89 % 1003,7 hPa 0,0 l/m 0 min 2 min 0,0 UV-I 241 W/m 0,0 km/h (0 Bft)
11.05.2014 16:58 10,9 C 10,6 C 90 % 1003,7 hPa 0,0 l/m 0 min 0 min 0,0 UV-I 253 W/m 15,4 km/h (3 Bft)
11.05.2014 17:00 10,9 C 10,6 C 91 % 1003,6 hPa 0,0 l/m 0 min 0 min 0,0 UV-I 253 W/m 10,3 km/h (2 Bft)
11.05.2014 17:02 11,1 C 10,6 C 92 % 1003,6 hPa 0,0 l/m 0 min 0 min 0,0 UV-I 318 W/m 0,0 km/h (0 Bft)
11.05.2014 17:05 11,3 C 11,1 C 93 % 1003,6 hPa 0,0 l/m 0 min 0 min 1,0 UV-I 311 W/m 12,9 km/h (3 Bft)
11.05.2014 17:06 11,3 C 11,1 C 93 % 1003,6 hPa 0,0 l/m 1 min 0 min 1,0 UV-I 432 W/m 15,4 km/h (3 Bft)
11.05.2014 17:08 11,4 C 11,1 C 93 % 1003,6 hPa 0,0 l/m 2 min 2 min 0,0 UV-I 432 W/m 15,4 km/h (3 Bft)
11.05.2014 17:10 11,6 C 11,1 C 93 % 1003,5 hPa 0,0 l/m 0 min 0 min 0,5 UV-I 255 W/m 15,4 km/h (3 Bft)
11.05.2014 17:12 11,7 C 11,1 C 93 % 1003,6 hPa 0,0 l/m 0 min 0 min 0,5 UV-I 255 W/m 12,9 km/h (3 Bft)
11.05.2014 17:14 11,8 C 11,1 C 93 % 1003,5 hPa 0,0 l/m 2 min 0 min 0,9 UV-I 526 W/m 10,3 km/h (2 Bft)
11.05.2014 17:16 11,9 C 11,1 C 92 % 1003,6 hPa 0,0 l/m 2 min 0 min 1,0 UV-I 526 W/m 7,7 km/h (2 Bft)
11.05.2014 17:18 12,0 C 11,1 C 92 % 1003,7 hPa 0,0 l/m 2 min 0 min 1,1 UV-I 677 W/m 18,0 km/h (3 Bft)
11.05.2014 17:20 12,2 C 11,1 C 92 % 1003,6 hPa 0,0 l/m 2 min 0 min 1,2 UV-I 612 W/m 18,0 km/h (3 Bft)
11.05.2014 17:22 12,3 C 11,1 C 91 % 1003,6 hPa 0,0 l/m 2 min 0 min 1,0 UV-I 508 W/m 23,2 km/h (4 Bft)
11.05.2014 17:24 12,4 C 11,1 C 90 % 1003,7 hPa 0,0 l/m 2 min 0 min 1,0 UV-I 526 W/m 10,3 km/h (2 Bft)
11.05.2014 17:26 12,4 C 10,6 C 89 % 1003,7 hPa 0,0 l/m 2 min 0 min 1,0 UV-I 526 W/m 23,2 km/h (4 Bft)
11.05.2014 17:28 12,4 C 10,6 C 88 % 1003,7 hPa 0,0 l/m 2 min 0 min 1,0 UV-I 526 W/m 20,6 km/h (4 Bft)
11.05.2014 17:30 12,6 C 10,6 C 88 % 1003,6 hPa 0,0 l/m 0 min 0 min 0,0 UV-I 200 W/m 25,7 km/h (4 Bft)
11.05.2014 17:32 12,5 C 10,6 C 87 % 1003,8 hPa 0,0 l/m 0 min 0 min 0,0 UV-I 214 W/m 15,4 km/h (3 Bft)
11.05.2014 17:34 12,4 C 10,6 C 86 % 1003,6 hPa 0,0 l/m 0 min 0 min 0,0 UV-I 200 W/m 15,4 km/h (3 Bft)
11.05.2014 17:36 12,3 C 10,6 C 85 % 1003,6 hPa 0,0 l/m 0 min 0 min 0,0 UV-I 137 W/m 18,0 km/h (3 Bft)
11.05.2014 17:38 12,3 C 10,6 C 86 % 1003,7 hPa 0,0 l/m 0 min 0 min 0,0 UV-I 93 W/m 25,7 km/h (4 Bft)
11.05.2014 17:40 12,2 C 10,6 C 85 % 1003,8 hPa 0,0 l/m 0 min 0 min 0,0 UV-I 84 W/m 15,4 km/h (3 Bft)
11.05.2014 17:42 12,1 C 10,0 C 85 % 1003,7 hPa 0,0 l/m 0 min 0 min 0,0 UV-I 72 W/m 20,6 km/h (4 Bft)
11.05.2014 17:44 12,0 C 10,0 C 85 % 1003,7 hPa 0,0 l/m 0 min 2 min 0,0 UV-I 69 W/m 10,3 km/h (2 Bft)
11.05.2014 17:46 11,9 C 10,0 C 86 % 1003,8 hPa 0,0 l/m 0 min 2 min 0,0 UV-I 70 W/m 18,0 km/h (3 Bft)
11.05.2014 17:48 11,8 C 10,0 C 86 % 1003,8 hPa 0,0 l/m 0 min 2 min 0,0 UV-I 65 W/m 18,0 km/h (3 Bft)
11.05.2014 17:50 11,7 C 9,4 C 86 % 1003,9 hPa 0,2 l/m 0 min 2 min 0,0 UV-I 65 W/m 20,6 km/h (4 Bft)
11.05.2014 17:52 11,5 C 9,4 C 87 % 1004,1 hPa 0,0 l/m 0 min 2 min 0,0 UV-I 69 W/m 20,6 km/h (4 Bft)
11.05.2014 17:54 11,3 C 9,4 C 88 % 1004,1 hPa 0,2 l/m 0 min 2 min 0,0 UV-I 62 W/m 12,9 km/h (3 Bft)
11.05.2014 17:56 11,2 C 9,4 C 89 % 1004,3 hPa 0,0 l/m 0 min 2 min 0,0 UV-I 32 W/m 33,5 km/h (5 Bft)
11.05.2014 17:58 11,0 C 8,9 C 89 % 1004,2 hPa 0,2 l/m 0 min 2 min 0,0 UV-I 49 W/m 25,7 km/h (4 Bft)
11.05.2014 18:00 10,8 C 9,4 C 90 % 1004,2 hPa 0,2 l/m 0 min 2 min 0,0 UV-I 62 W/m 10,3 km/h (2 Bft)
11.05.2014 18:02 10,7 C 9,4 C 90 % 1004,2 hPa 0,0 l/m 0 min 2 min 0,0 UV-I 76 W/m 10,3 km/h (2 Bft)
11.05.2014 18:05 10,6 C 9,4 C 92 % 1004,1 hPa 0,2 l/m 2 min 2 min 0,0 UV-I 278 W/m 5,1 km/h (1 Bft)
11.05.2014 18:06 10,6 C 10,0 C 92 % 1004,1 hPa 0,0 l/m 1 min 1 min 0,0 UV-I 278 W/m 7,7 km/h (2 Bft)
11.05.2014 18:08 10,5 C 10,0 C 92 % 1004,1 hPa 0,0 l/m 2 min 0 min 0,0 UV-I 316 W/m 10,3 km/h (2 Bft)
11.05.2014 18:10 10,5 C 10,0 C 92 % 1004,1 hPa 0,0 l/m 2 min 0 min 0,0 UV-I 352 W/m 20,6 km/h (4 Bft)
11.05.2014 18:12 10,7 C 10,0 C 92 % 1004,1 hPa 0,0 l/m 2 min 0 min 0,0 UV-I 374 W/m 18,0 km/h (3 Bft)
11.05.2014 18:14 10,8 C 10,0 C 93 % 1004,2 hPa 0,0 l/m 0 min 0 min 0,0 UV-I 216 W/m 12,9 km/h (3 Bft)
11.05.2014 18:16 10,9 C 10,0 C 93 % 1004,3 hPa 0,0 l/m 0 min 0 min 0,0 UV-I 206 W/m 18,0 km/h (3 Bft)
11.05.2014 18:18 10,9 C 10,0 C 93 % 1004,2 hPa 0,0 l/m 0 min 0 min 0,0 UV-I 153 W/m 15,4 km/h (3 Bft)
11.05.2014 18:20 10,9 C 9,4 C 92 % 1004,3 hPa 0,0 l/m 0 min 0 min 0,0 UV-I 142 W/m 18,0 km/h (3 Bft)
11.05.2014 18:22 10,9 C 9,4 C 92 % 1004,4 hPa 0,0 l/m 0 min 0 min 0,0 UV-I 123 W/m 12,9 km/h (3 Bft)
11.05.2014 18:24 10,9 C 9,4 C 92 % 1004,3 hPa 0,0 l/m 0 min 0 min 0,0 UV-I 142 W/m 18,0 km/h (3 Bft)
11.05.2014 18:26 10,9 C 9,4 C 92 % 1004,3 hPa 0,0 l/m 0 min 0 min 0,0 UV-I 137 W/m 20,6 km/h (4 Bft)
11.05.2014 18:28 11,0 C 9,4 C 92 % 1004,3 hPa 0,0 l/m 0 min 0 min 0,0 UV-I 109 W/m 28,3 km/h (4 Bft)
11.05.2014 18:30 11,0 C 9,4 C 92 % 1004,3 hPa 0,0 l/m 0 min 0 min 0,0 UV-I 120 W/m 25,7 km/h (4 Bft)
11.05.2014 18:32 11,0 C 9,4 C 91 % 1004,4 hPa 0,0 l/m 0 min 0 min 0,0 UV-I 113 W/m 18,0 km/h (3 Bft)
11.05.2014 18:34 10,9 C 9,4 C 91 % 1004,4 hPa 0,0 l/m 0 min 0 min 0,0 UV-I 125 W/m 15,4 km/h (3 Bft)
11.05.2014 18:36 10,9 C 9,4 C 91 % 1004,4 hPa 0,0 l/m 0 min 0 min 0,0 UV-I 90 W/m 7,7 km/h (2 Bft)
11.05.2014 18:38 10,9 C 9,4 C 90 % 1004,4 hPa 0,0 l/m 0 min 0 min 0,0 UV-I 67 W/m 18,0 km/h (3 Bft)
11.05.2014 18:40 10,9 C 9,4 C 90 % 1004,5 hPa 0,0 l/m 0 min 0 min 0,0 UV-I 65 W/m 15,4 km/h (3 Bft)
11.05.2014 18:42 10,9 C 9,4 C 90 % 1004,5 hPa 0,0 l/m 0 min 2 min 0,0 UV-I 58 W/m 18,0 km/h (3 Bft)
11.05.2014 18:44 10,8 C 9,4 C 90 % 1004,5 hPa 0,0 l/m 0 min 2 min 0,0 UV-I 58 W/m 18,0 km/h (3 Bft)
11.05.2014 18:46 10,8 C 9,4 C 90 % 1004,5 hPa 0,0 l/m 0 min 2 min 0,0 UV-I 58 W/m 15,4 km/h (3 Bft)
11.05.2014 18:48 10,8 C 9,4 C 90 % 1004,5 hPa 0,0 l/m 0 min 2 min 0,0 UV-I 44 W/m 10,3 km/h (2 Bft)
11.05.2014 18:50 10,7 C 9,4 C 90 % 1004,4 hPa 0,0 l/m 0 min 2 min 0,0 UV-I 54 W/m 12,9 km/h (3 Bft)
11.05.2014 18:52 10,7 C 9,4 C 90 % 1004,4 hPa 0,0 l/m 0 min 2 min 0,0 UV-I 79 W/m 12,9 km/h (3 Bft)
11.05.2014 18:54 10,7 C 9,4 C 90 % 1004,4 hPa 0,0 l/m 0 min 0 min 0,0 UV-I 77 W/m 12,9 km/h (3 Bft)
11.05.2014 18:56 10,6 C 9,4 C 90 % 1004,4 hPa 0,0 l/m 0 min 0 min 0,0 UV-I 86 W/m 12,9 km/h (3 Bft)
11.05.2014 18:58 10,7 C 9,4 C 91 % 1004,4 hPa 0,0 l/m 0 min 0 min 0,0 UV-I 86 W/m 7,7 km/h (2 Bft)
11.05.2014 19:00 10,7 C 9,4 C 91 % 1004,5 hPa 0,0 l/m 0 min 0 min 0,0 UV-I 113 W/m 0,0 km/h (0 Bft)
11.05.2014 19:02 10,7 C 9,4 C 91 % 1004,5 hPa 0,0 l/m 0 min 0 min 0,0 UV-I 118 W/m 7,7 km/h (2 Bft)
11.05.2014 19:05 10,8 C 9,4 C 91 % 1004,5 hPa 0,0 l/m 0 min 0 min 0,0 UV-I 91 W/m 10,3 km/h (2 Bft)
11.05.2014 19:06 10,8 C 9,4 C 91 % 1004,5 hPa 0,0 l/m 0 min 0 min 0,0 UV-I 88 W/m 10,3 km/h (2 Bft)
11.05.2014 19:08 10,8 C 9,4 C 91 % 1004,5 hPa 0,0 l/m 0 min 0 min 0,0 UV-I 81 W/m 15,4 km/h (3 Bft)
11.05.2014 19:10 10,8 C 9,4 C 91 % 1004,5 hPa 0,0 l/m 0 min 0 min 0,0 UV-I 70 W/m 18,0 km/h (3 Bft)
11.05.2014 19:12 10,8 C 9,4 C 91 % 1004,5 hPa 0,0 l/m 0 min 0 min 0,0 UV-I 69 W/m 30,9 km/h (5 Bft)
11.05.2014 19:14 10,8 C 9,4 C 91 % 1004,5 hPa 0,0 l/m 0 min 0 min 0,0 UV-I 69 W/m 12,9 km/h (3 Bft)
11.05.2014 19:16 10,8 C 9,4 C 90 % 1004,5 hPa 0,0 l/m 0 min 0 min 0,0 UV-I 60 W/m 10,3 km/h (2 Bft)
11.05.2014 19:18 10,8 C 9,4 C 90 % 1004,4 hPa 0,0 l/m 0 min 0 min 0,0 UV-I 54 W/m 7,7 km/h (2 Bft)
11.05.2014 19:20 10,7 C 9,4 C 90 % 1004,6 hPa 0,0 l/m 0 min 0 min 0,0 UV-I 47 W/m 15,4 km/h (3 Bft)
11.05.2014 19:22 10,7 C 8,9 C 90 % 1004,5 hPa 0,0 l/m 0 min 0 min 0,0 UV-I 39 W/m 12,9 km/h (3 Bft)
11.05.2014 19:24 10,8 C 8,9 C 90 % 1004,4 hPa 0,0 l/m 0 min 0 min 0,0 UV-I 33 W/m 7,7 km/h (2 Bft)
11.05.2014 19:26 10,8 C 8,9 C 90 % 1004,5 hPa 0,0 l/m 0 min 0 min 0,0 UV-I 32 W/m 12,9 km/h (3 Bft)
11.05.2014 19:28 10,8 C 8,9 C 90 % 1004,5 hPa 0,0 l/m 0 min 0 min 0,0 UV-I 37 W/m 18,0 km/h (3 Bft)
11.05.2014 19:30 10,8 C 8,9 C 90 % 1004,5 hPa 0,0 l/m 0 min 0 min 0,0 UV-I 35 W/m 7,7 km/h (2 Bft)
11.05.2014 19:32 10,8 C 8,9 C 89 % 1004,5 hPa 0,0 l/m 0 min 0 min 0,0 UV-I 32 W/m 10,3 km/h (2 Bft)
11.05.2014 19:34 10,8 C 8,9 C 89 % 1004,5 hPa 0,0 l/m 0 min 0 min 0,0 UV-I 30 W/m 15,4 km/h (3 Bft)
11.05.2014 19:36 10,8 C 8,9 C 89 % 1004,6 hPa 0,0 l/m 0 min 0 min 0,0 UV-I 32 W/m 23,2 km/h (4 Bft)
11.05.2014 19:38 10,8 C 8,9 C 89 % 1004,6 hPa 0,0 l/m 0 min 0 min 0,0 UV-I 35 W/m 10,3 km/h (2 Bft)
11.05.2014 19:40 10,8 C 9,4 C 89 % 1004,6 hPa 0,0 l/m 0 min 0 min 0,0 UV-I 40 W/m 12,9 km/h (3 Bft)
11.05.2014 19:42 10,8 C 9,4 C 89 % 1004,6 hPa 0,0 l/m 0 min 0 min 0,0 UV-I 44 W/m 5,1 km/h (1 Bft)
11.05.2014 19:44 10,8 C 9,4 C 89 % 1004,6 hPa 0,0 l/m 0 min 0 min 0,0 UV-I 44 W/m 15,4 km/h (3 Bft)
11.05.2014 19:46 10,8 C 9,4 C 89 % 1004,6 hPa 0,0 l/m 0 min 0 min 0,0 UV-I 37 W/m 7,7 km/h (2 Bft)
11.05.2014 19:48 10,9 C 9,4 C 89 % 1004,6 hPa 0,0 l/m 0 min 0 min 0,0 UV-I 32 W/m 10,3 km/h (2 Bft)
11.05.2014 19:50 10,9 C 9,4 C 89 % 1004,6 hPa 0,0 l/m 0 min 0 min 0,0 UV-I 26 W/m 23,2 km/h (4 Bft)
11.05.2014 19:52 10,9 C 9,4 C 89 % 1004,6 hPa 0,0 l/m 0 min 0 min 0,0 UV-I 21 W/m 12,9 km/h (3 Bft)
11.05.2014 19:54 10,9 C 9,4 C 89 % 1004,6 hPa 0,0 l/m 0 min 0 min 0,0 UV-I 23 W/m 7,7 km/h (2 Bft)
11.05.2014 19:56 10,9 C 9,4 C 89 % 1004,7 hPa 0,0 l/m 0 min 0 min 0,0 UV-I 23 W/m 18,0 km/h (3 Bft)
11.05.2014 19:58 10,9 C 9,4 C 88 % 1004,7 hPa 0,0 l/m 0 min 0 min 0,0 UV-I 23 W/m 12,9 km/h (3 Bft)
11.05.2014 20:00 10,8 C 9,4 C 88 % 1004,8 hPa 0,0 l/m 0 min 0 min 0,0 UV-I 23 W/m 15,4 km/h (3 Bft)
11.05.2014 20:02 10,9 C 9,4 C 88 % 1004,7 hPa 0,0 l/m 0 min 0 min 0,0 UV-I 21 W/m 2,6 km/h (1 Bft)
11.05.2014 20:05 10,8 C 8,9 C 88 % 1004,9 hPa 0,0 l/m 0 min 0 min 0,0 UV-I 18 W/m 10,3 km/h (2 Bft)
11.05.2014 20:06 10,8 C 9,4 C 88 % 1004,9 hPa 0,0 l/m 0 min 0 min 0,0 UV-I 18 W/m 10,3 km/h (2 Bft)
11.05.2014 20:08 10,8 C 8,9 C 88 % 1004,8 hPa 0,0 l/m 0 min 0 min 0,0 UV-I 19 W/m 12,9 km/h (3 Bft)
11.05.2014 20:10 10,8 C 8,9 C 88 % 1004,8 hPa 0,0 l/m 0 min 0 min 0,0 UV-I 19 W/m 7,7 km/h (2 Bft)
11.05.2014 20:12 10,8 C 8,9 C 88 % 1004,8 hPa 0,0 l/m 0 min 0 min 0,0 UV-I 19 W/m 2,6 km/h (1 Bft)
11.05.2014 20:14 10,8 C 8,9 C 88 % 1004,8 hPa 0,0 l/m 0 min 0 min 0,0 UV-I 19 W/m 10,3 km/h (2 Bft)
11.05.2014 20:16 10,8 C 8,9 C 88 % 1004,8 hPa 0,0 l/m 0 min 0 min 0,0 UV-I 21 W/m 5,1 km/h (1 Bft)
11.05.2014 20:18 10,7 C 8,9 C 88 % 1004,8 hPa 0,0 l/m 0 min 0 min 0,0 UV-I 21 W/m 23,2 km/h (4 Bft)
11.05.2014 20:20 10,7 C 8,9 C 88 % 1004,9 hPa 0,0 l/m 0 min 0 min 0,0 UV-I 25 W/m 20,6 km/h (4 Bft)
11.05.2014 20:22 10,7 C 8,9 C 88 % 1004,9 hPa 0,0 l/m 0 min 0 min 0,0 UV-I 26 W/m 15,4 km/h (3 Bft)
11.05.2014 20:24 10,7 C 8,9 C 87 % 1004,8 hPa 0,0 l/m 0 min 0 min 0,0 UV-I 26 W/m 12,9 km/h (3 Bft)
11.05.2014 20:26 10,7 C 8,9 C 87 % 1004,8 hPa 0,0 l/m 0 min 0 min 0,0 UV-I 26 W/m 23,2 km/h (4 Bft)
11.05.2014 20:28 10,7 C 8,9 C 87 % 1004,9 hPa 0,0 l/m 0 min 0 min 0,0 UV-I 26 W/m 5,1 km/h (1 Bft)
11.05.2014 20:30 10,7 C 8,9 C 87 % 1004,9 hPa 0,0 l/m 0 min 0 min 0,0 UV-I 25 W/m 5,1 km/h (1 Bft)
11.05.2014 20:32 10,7 C 8,9 C 87 % 1004,9 hPa 0,0 l/m 0 min 0 min 0,0 UV-I 23 W/m 5,1 km/h (1 Bft)
11.05.2014 20:34 10,7 C 8,9 C 87 % 1004,9 hPa 0,0 l/m 0 min 0 min 0,0 UV-I 23 W/m 2,6 km/h (1 Bft)
11.05.2014 20:36 10,7 C 8,9 C 88 % 1004,9 hPa 0,0 l/m 0 min 0 min 0,0 UV-I 23 W/m 15,4 km/h (3 Bft)
11.05.2014 20:38 10,6 C 8,9 C 88 % 1004,9 hPa 0,0 l/m 0 min 0 min 0,0 UV-I 19 W/m 2,6 km/h (1 Bft)
11.05.2014 20:40 10,6 C 8,9 C 88 % 1004,9 hPa 0,0 l/m 0 min 0 min 0,0 UV-I 14 W/m 2,6 km/h (1 Bft)
11.05.2014 20:42 10,6 C 8,9 C 88 % 1005,0 hPa 0,0 l/m 0 min 0 min 0,0 UV-I 14 W/m 5,1 km/h (1 Bft)
11.05.2014 20:44 10,6 C 8,9 C 88 % 1005,0 hPa 0,0 l/m 0 min 0 min 0,0 UV-I 12 W/m 10,3 km/h (2 Bft)
11.05.2014 20:46 10,6 C 8,9 C 88 % 1005,0 hPa 0,0 l/m 0 min 0 min 0,0 UV-I 14 W/m 7,7 km/h (2 Bft)
11.05.2014 20:48 10,6 C 8,9 C 88 % 1005,1 hPa 0,0 l/m 0 min 0 min 0,0 UV-I 14 W/m 10,3 km/h (2 Bft)
11.05.2014 20:50 10,6 C 8,9 C 88 % 1005,1 hPa 0,0 l/m 0 min 0 min 0,0 UV-I 16 W/m 5,1 km/h (1 Bft)
11.05.2014 20:52 10,6 C 8,9 C 88 % 1005,1 hPa 0,0 l/m 0 min 0 min 0,0 UV-I 14 W/m 10,3 km/h (2 Bft)
11.05.2014 20:54 10,6 C 8,9 C 87 % 1005,1 hPa 0,0 l/m 0 min 0 min 0,0 UV-I 16 W/m 5,1 km/h (1 Bft)
11.05.2014 20:56 10,6 C 8,9 C 87 % 1005,1 hPa 0,0 l/m 0 min 0 min 0,0 UV-I 16 W/m 12,9 km/h (3 Bft)
11.05.2014 20:58 10,6 C 8,9 C 87 % 1005,1 hPa 0,0 l/m 0 min 0 min 0,0 UV-I 12 W/m 2,6 km/h (1 Bft)
11.05.2014 21:00 10,6 C 8,9 C 87 % 1005,1 hPa 0,0 l/m 0 min 0 min 0,0 UV-I 12 W/m 15,4 km/h (3 Bft)
11.05.2014 21:02 10,6 C 8,9 C 87 % 1005,2 hPa 0,0 l/m 0 min 0 min 0,0 UV-I 11 W/m 0,0 km/h (0 Bft)
11.05.2014 21:05 10,6 C 8,9 C 87 % 1005,1 hPa 0,0 l/m 0 min 0 min 0,0 UV-I 9 W/m 10,3 km/h (2 Bft)
11.05.2014 21:08 10,6 C 8,9 C 87 % 1005,2 hPa 0,0 l/m 0 min 0 min 0,0 UV-I 5 W/m 7,7 km/h (2 Bft)
11.05.2014 21:10 10,6 C 8,9 C 87 % 1005,2 hPa 0,0 l/m 0 min 0 min 0,0 UV-I 0 W/m 2,6 km/h (1 Bft)
11.05.2014 21:12 10,6 C 8,9 C 87 % 1005,3 hPa 0,0 l/m 0 min 0 min 0,0 UV-I 0 W/m 2,6 km/h (1 Bft)
11.05.2014 21:14 10,6 C 8,9 C 87 % 1005,3 hPa 0,0 l/m 0 min 2 min 0,0 UV-I 0 W/m 12,9 km/h (3 Bft)
11.05.2014 21:16 10,6 C 8,9 C 87 % 1005,3 hPa 0,0 l/m 0 min 2 min 0,0 UV-I 0 W/m 10,3 km/h (2 Bft)
11.05.2014 21:18 10,6 C 8,3 C 88 % 1005,4 hPa 0,0 l/m 0 min 2 min 0,0 UV-I 0 W/m 12,9 km/h (3 Bft)
11.05.2014 21:20 10,5 C 8,3 C 88 % 1005,5 hPa 0,0 l/m 0 min 2 min 0,0 UV-I 0 W/m 15,4 km/h (3 Bft)
11.05.2014 21:22 10,4 C 8,3 C 88 % 1005,5 hPa 0,0 l/m 0 min 2 min 0,0 UV-I 0 W/m 12,9 km/h (3 Bft)
11.05.2014 21:24 10,3 C 8,3 C 89 % 1005,4 hPa 0,2 l/m 0 min 2 min 0,0 UV-I 0 W/m 10,3 km/h (2 Bft)
11.05.2014 21:26 10,3 C 8,3 C 89 % 1005,4 hPa 0,0 l/m 0 min 2 min 0,0 UV-I 0 W/m 7,7 km/h (2 Bft)
11.05.2014 21:28 10,2 C 8,3 C 90 % 1005,8 hPa 0,2 l/m 0 min 2 min 0,0 UV-I 0 W/m 5,1 km/h (1 Bft)
11.05.2014 21:30 10,1 C 8,3 C 90 % 1005,8 hPa 0,2 l/m 0 min 2 min 0,0 UV-I 0 W/m 7,7 km/h (2 Bft)
11.05.2014 21:32 10,1 C 8,3 C 90 % 1005,8 hPa 0,4 l/m 0 min 2 min 0,0 UV-I 0 W/m 5,1 km/h (1 Bft)
11.05.2014 21:34 10,0 C 8,3 C 91 % 1005,8 hPa 0,2 l/m 0 min 2 min 0,0 UV-I 0 W/m 18,0 km/h (3 Bft)
11.05.2014 21:36 9,9 C 8,3 C 91 % 1005,8 hPa 0,0 l/m 0 min 2 min 0,0 UV-I 0 W/m 10,3 km/h (2 Bft)
11.05.2014 21:38 9,8 C 8,3 C 92 % 1005,8 hPa 0,4 l/m 0 min 2 min 0,0 UV-I 0 W/m 10,3 km/h (2 Bft)
11.05.2014 21:40 9,8 C 8,3 C 92 % 1005,7 hPa 0,0 l/m 0 min 2 min 0,0 UV-I 0 W/m 5,1 km/h (1 Bft)
11.05.2014 21:42 9,7 C 8,3 C 92 % 1005,3 hPa 0,0 l/m 0 min 2 min 0,0 UV-I 0 W/m 12,9 km/h (3 Bft)
11.05.2014 21:44 9,6 C 8,3 C 93 % 1005,4 hPa 0,0 l/m 0 min 2 min 0,0 UV-I 0 W/m 15,4 km/h (3 Bft)
11.05.2014 21:46 9,6 C 8,3 C 93 % 1005,5 hPa 0,0 l/m 0 min 0 min 0,0 UV-I 0 W/m 10,3 km/h (2 Bft)
11.05.2014 21:48 9,6 C 8,3 C 93 % 1005,5 hPa 0,0 l/m 0 min 0 min 0,0 UV-I 0 W/m 5,1 km/h (1 Bft)
11.05.2014 21:50 9,6 C 8,3 C 93 % 1005,6 hPa 0,0 l/m 0 min 2 min 0,0 UV-I 0 W/m 5,1 km/h (1 Bft)
11.05.2014 21:52 9,6 C 8,3 C 93 % 1005,7 hPa 0,0 l/m 0 min 0 min 0,0 UV-I 0 W/m 15,4 km/h (3 Bft)
11.05.2014 21:54 9,5 C 8,3 C 94 % 1005,7 hPa 0,0 l/m 0 min 0 min 0,0 UV-I 0 W/m 2,6 km/h (1 Bft)
11.05.2014 21:56 9,5 C 8,3 C 94 % 1005,8 hPa 0,0 l/m 0 min 0 min 0,0 UV-I 0 W/m 10,3 km/h (2 Bft)
11.05.2014 21:58 9,4 C 7,8 C 94 % 1005,8 hPa 0,0 l/m 0 min 0 min 0,0 UV-I 0 W/m 10,3 km/h (2 Bft)
11.05.2014 22:00 9,4 C 7,8 C 94 % 1005,8 hPa 0,0 l/m 0 min 0 min 0,0 UV-I 0 W/m 2,6 km/h (1 Bft)
11.05.2014 22:02 9,4 C 7,8 C 94 % 1005,8 hPa 0,0 l/m 0 min 0 min 0,0 UV-I 0 W/m 5,1 km/h (1 Bft)
11.05.2014 22:05 9,4 C 7,8 C 94 % 1005,8 hPa 0,0 l/m 0 min 0 min 0,0 UV-I 0 W/m 12,9 km/h (3 Bft)
11.05.2014 22:06 9,4 C 7,8 C 94 % 1005,8 hPa 0,0 l/m 0 min 0 min 0,0 UV-I 0 W/m 12,9 km/h (3 Bft)
11.05.2014 22:08 9,4 C 7,8 C 94 % 1005,7 hPa 0,0 l/m 0 min 2 min 0,0 UV-I 0 W/m 5,1 km/h (1 Bft)
11.05.2014 22:10 9,3 C 7,8 C 95 % 1005,8 hPa 0,0 l/m 0 min 0 min 0,0 UV-I 0 W/m 10,3 km/h (2 Bft)
11.05.2014 22:12 9,3 C 7,8 C 95 % 1005,8 hPa 0,0 l/m 0 min 0 min 0,0 UV-I 0 W/m 10,3 km/h (2 Bft)
11.05.2014 22:14 9,3 C 7,8 C 95 % 1005,8 hPa 0,0 l/m 0 min 0 min 0,0 UV-I 0 W/m 7,7 km/h (2 Bft)
11.05.2014 22:16 9,3 C 7,8 C 95 % 1005,8 hPa 0,0 l/m 0 min 0 min 0,0 UV-I 0 W/m 5,1 km/h (1 Bft)
11.05.2014 22:18 9,3 C 7,8 C 95 % 1005,9 hPa 0,0 l/m 0 min 0 min 0,0 UV-I 0 W/m 0,0 km/h (0 Bft)
11.05.2014 22:20 9,3 C 7,8 C 95 % 1005,8 hPa 0,0 l/m 0 min 0 min 0,0 UV-I 0 W/m 5,1 km/h (1 Bft)
11.05.2014 22:22 9,3 C 7,8 C 95 % 1005,8 hPa 0,0 l/m 0 min 0 min 0,0 UV-I 0 W/m 0,0 km/h (0 Bft)
11.05.2014 22:24 9,3 C 7,8 C 95 % 1005,8 hPa 0,0 l/m 0 min 0 min 0,0 UV-I 0 W/m 2,6 km/h (1 Bft)
11.05.2014 22:26 9,3 C 7,8 C 95 % 1005,8 hPa 0,0 l/m 0 min 0 min 0,0 UV-I 0 W/m 7,7 km/h (2 Bft)
11.05.2014 22:28 9,3 C 7,8 C 95 % 1005,8 hPa 0,0 l/m 0 min 0 min 0,0 UV-I 0 W/m 10,3 km/h (2 Bft)
11.05.2014 22:30 9,3 C 7,8 C 95 % 1005,9 hPa 0,0 l/m 0 min 0 min 0,0 UV-I 0 W/m 10,3 km/h (2 Bft)
11.05.2014 22:32 9,3 C 7,8 C 95 % 1005,8 hPa 0,0 l/m 0 min 0 min 0,0 UV-I 0 W/m 2,6 km/h (1 Bft)
11.05.2014 22:34 9,3 C 7,8 C 95 % 1005,9 hPa 0,0 l/m 0 min 0 min 0,0 UV-I 0 W/m 0,0 km/h (0 Bft)
11.05.2014 22:36 9,3 C 7,8 C 95 % 1005,9 hPa 0,0 l/m 0 min 0 min 0,0 UV-I 0 W/m 7,7 km/h (2 Bft)
11.05.2014 22:38 9,3 C 7,8 C 95 % 1005,9 hPa 0,0 l/m 0 min 0 min 0,0 UV-I 0 W/m 7,7 km/h (2 Bft)
11.05.2014 22:40 9,4 C 7,8 C 95 % 1005,9 hPa 0,0 l/m 0 min 0 min 0,0 UV-I 0 W/m 0,0 km/h (0 Bft)
11.05.2014 22:42 9,4 C 7,8 C 95 % 1005,9 hPa 0,0 l/m 0 min 0 min 0,0 UV-I 0 W/m 12,9 km/h (3 Bft)
11.05.2014 22:44 9,4 C 7,8 C 94 % 1005,9 hPa 0,0 l/m 0 min 0 min 0,0 UV-I 0 W/m 7,7 km/h (2 Bft)
11.05.2014 22:46 9,4 C 7,8 C 94 % 1005,8 hPa 0,0 l/m 0 min 0 min 0,0 UV-I 0 W/m 10,3 km/h (2 Bft)
11.05.2014 22:48 9,4 C 7,8 C 94 % 1005,8 hPa 0,0 l/m 0 min 0 min 0,0 UV-I 0 W/m 10,3 km/h (2 Bft)
11.05.2014 22:50 9,4 C 7,8 C 94 % 1005,8 hPa 0,0 l/m 0 min 0 min 0,0 UV-I 0 W/m 10,3 km/h (2 Bft)
11.05.2014 22:52 9,4 C 7,8 C 94 % 1005,8 hPa 0,0 l/m 0 min 0 min 0,0 UV-I 0 W/m 10,3 km/h (2 Bft)
11.05.2014 22:54 9,4 C 7,8 C 94 % 1005,8 hPa 0,0 l/m 0 min 0 min 0,0 UV-I 0 W/m 10,3 km/h (2 Bft)
11.05.2014 22:56 9,4 C 7,8 C 94 % 1005,8 hPa 0,0 l/m 0 min 0 min 0,0 UV-I 0 W/m 0,0 km/h (0 Bft)
11.05.2014 22:58 9,5 C 7,8 C 94 % 1005,8 hPa 0,0 l/m 0 min 0 min 0,0 UV-I 0 W/m 0,0 km/h (0 Bft)
11.05.2014 23:00 9,5 C 7,8 C 94 % 1005,8 hPa 0,0 l/m 0 min 0 min 0,0 UV-I 0 W/m 10,3 km/h (2 Bft)
11.05.2014 23:02 9,5 C 7,8 C 93 % 1005,8 hPa 0,0 l/m 0 min 0 min 0,0 UV-I 0 W/m 15,4 km/h (3 Bft)
11.05.2014 23:05 9,6 C 7,8 C 93 % 1005,9 hPa 0,0 l/m 0 min 0 min 0,0 UV-I 0 W/m 0,0 km/h (0 Bft)
11.05.2014 23:06 9,6 C 7,8 C 93 % 1005,9 hPa 0,0 l/m 0 min 0 min 0,0 UV-I 0 W/m 0,0 km/h (0 Bft)
11.05.2014 23:08 9,6 C 7,8 C 93 % 1005,8 hPa 0,0 l/m 0 min 0 min 0,0 UV-I 0 W/m 12,9 km/h (3 Bft)
11.05.2014 23:10 9,6 C 7,8 C 92 % 1005,9 hPa 0,0 l/m 0 min 0 min 0,0 UV-I 0 W/m 5,1 km/h (1 Bft)
11.05.2014 23:12 9,6 C 7,8 C 92 % 1005,9 hPa 0,0 l/m 0 min 0 min 0,0 UV-I 0 W/m 10,3 km/h (2 Bft)
11.05.2014 23:14 9,6 C 7,8 C 92 % 1005,9 hPa 0,0 l/m 0 min 0 min 0,0 UV-I 0 W/m 2,6 km/h (1 Bft)
11.05.2014 23:16 9,7 C 7,8 C 91 % 1005,9 hPa 0,0 l/m 0 min 0 min 0,0 UV-I 0 W/m 0,0 km/h (0 Bft)
11.05.2014 23:18 9,7 C 7,8 C 91 % 1006,0 hPa 0,0 l/m 0 min 0 min 0,0 UV-I 0 W/m 7,7 km/h (2 Bft)
11.05.2014 23:20 9,7 C 7,8 C 91 % 1006,0 hPa 0,0 l/m 0 min 0 min 0,0 UV-I 0 W/m 0,0 km/h (0 Bft)
11.05.2014 23:22 9,7 C 7,8 C 91 % 1006,1 hPa 0,0 l/m 0 min 0 min 0,0 UV-I 0 W/m 15,4 km/h (3 Bft)
11.05.2014 23:24 9,7 C 7,8 C 90 % 1006,1 hPa 0,0 l/m 0 min 0 min 0,0 UV-I 0 W/m 7,7 km/h (2 Bft)
11.05.2014 23:26 9,7 C 7,8 C 90 % 1006,1 hPa 0,0 l/m 0 min 0 min 0,0 UV-I 0 W/m 12,9 km/h (3 Bft)
11.05.2014 23:28 9,7 C 7,8 C 90 % 1006,2 hPa 0,0 l/m 0 min 0 min 0,0 UV-I 0 W/m 10,3 km/h (2 Bft)
11.05.2014 23:30 9,7 C 7,8 C 90 % 1006,2 hPa 0,0 l/m 0 min 0 min 0,0 UV-I 0 W/m 7,7 km/h (2 Bft)
11.05.2014 23:32 9,7 C 7,8 C 90 % 1006,2 hPa 0,0 l/m 0 min 0 min 0,0 UV-I 0 W/m 10,3 km/h (2 Bft)
11.05.2014 23:34 9,7 C 7,8 C 89 % 1006,2 hPa 0,0 l/m 0 min 0 min 0,0 UV-I 0 W/m 18,0 km/h (3 Bft)
11.05.2014 23:36 9,7 C 7,8 C 89 % 1006,2 hPa 0,0 l/m 0 min 0 min 0,0 UV-I 0 W/m 2,6 km/h (1 Bft)
11.05.2014 23:38 9,7 C 7,8 C 89 % 1006,2 hPa 0,0 l/m 0 min 0 min 0,0 UV-I 0 W/m 5,1 km/h (1 Bft)
11.05.2014 23:40 9,7 C 7,8 C 89 % 1006,2 hPa 0,0 l/m 0 min 0 min 0,0 UV-I 0 W/m 2,6 km/h (1 Bft)
11.05.2014 23:42 9,8 C 7,8 C 89 % 1006,2 hPa 0,0 l/m 0 min 0 min 0,0 UV-I 0 W/m 7,7 km/h (2 Bft)
11.05.2014 23:44 9,8 C 7,8 C 88 % 1006,2 hPa 0,0 l/m 0 min 0 min 0,0 UV-I 0 W/m 7,7 km/h (2 Bft)
11.05.2014 23:46 9,8 C 7,8 C 88 % 1006,3 hPa 0,0 l/m 0 min 0 min 0,0 UV-I 0 W/m 7,7 km/h (2 Bft)
11.05.2014 23:48 9,8 C 7,8 C 88 % 1006,3 hPa 0,0 l/m 0 min 0 min 0,0 UV-I 0 W/m 7,7 km/h (2 Bft)
11.05.2014 23:50 9,8 C 7,2 C 88 % 1006,3 hPa 0,0 l/m 0 min 0 min 0,0 UV-I 0 W/m 12,9 km/h (3 Bft)
11.05.2014 23:52 9,8 C 7,8 C 88 % 1006,3 hPa 0,0 l/m 0 min 0 min 0,0 UV-I 0 W/m 10,3 km/h (2 Bft)
11.05.2014 23:54 9,8 C 7,8 C 88 % 1006,3 hPa 0,0 l/m 0 min 0 min 0,0 UV-I 0 W/m 10,3 km/h (2 Bft)
11.05.2014 23:56 9,8 C 7,2 C 87 % 1006,3 hPa 0,0 l/m 0 min 0 min 0,0 UV-I 0 W/m 7,7 km/h (2 Bft)
11.05.2014 23:58 9,9 C 7,2 C 87 % 1006,3 hPa 0,0 l/m 0 min 0 min 0,0 UV-I 0 W/m 18,0 km/h (3 Bft)
_ Min-Zeit 06:28 23:50 15:46 14:14 - - - - - 02:52
Minimum _ 9,1 C 7,2 C 60 % 1002,3 hPa - - - - - 0,0 km/h (0 Bft)
_ Max-Zeit 15:54 15:38 22:10 23:46 16:46 06:12 09:58 14:10 13:30 08:56
Maximum _ 15,9 C 18,3 C 95 % 1006,3 hPa 0,4 l/m 2 min 2 min 4,1 UV-I 970 W/m 54,1 km/h
W (7 Bft)
Durchschnitt _ 11,1 C 10,0 C 81 % 1003,5 hPa #4,4 l/m #3:30 h #2:48 h 1,5 UV-I 241 W/m 18,0 km/h (3 Bft)
© 2014 W. Hausmann